GFSFLT2_925_thetae_000.txt.gz
Theta_e
338 337 336 335 335 333 330 326 321 318 317 317 318 315 318 320 319 318 318 317 317 316 316 316 316 316 316 316 314 311 309 311
342 338 338 337 333 330 325 322 319 318 316 321 321 322 323 322 321 320 319 318 317 317 317 316 316 316 316 316 316 316 315 313
339 336 335 331 328 325 322 319 317 317 319 323 323 324 324 324 324 322 320 319 318 319 319 318 317 317 317 317 317 316 316 315
335 332 329 327 323 319 316 316 318 321 324 325 324 325 325 324 323 321 319 318 319 319 319 319 319 319 318 318 318 317 317 316
326 324 321 320 317 316 317 320 322 326 327 326 326 326 325 321 319 318 318 318 319 319 319 318 319 319 318 318 318 318 318 318
324 322 318 317 316 319 321 325 325 326 327 325 325 325 322 320 319 318 319 319 318 317 317 318 319 319 317 316 315 315 316 316
326 324 321 321 319 323 325 326 327 328 328 327 326 326 323 320 319 319 317 315 314 313 313 314 316 316 314 313 311 308 307 308
328 326 324 323 325 324 325 327 328 329 329 329 329 325 323 320 319 313 311 311 311 311 311 312 311 310 309 308 306 304 303 302
328 328 327 324 325 324 325 327 327 328 329 330 326 321 319 313 312 311 310 309 309 309 308 307 306 305 304 304 303 302 301 300
327 327 326 325 325 324 324 320 325 322 319 316 315 314 312 311 310 309 308 308 307 306 304 304 303 302 301 301 301 301 299 301
327 326 324 322 321 324 322 314 313 313 314 312 312 311 310 310 309 308 307 306 304 303 302 301 301 300 299 300 299 299 301 305
327 326 324 322 321 318 310 312 312 312 311 310 310 310 309 307 306 306 305 305 303 302 300 299 299 299 297 298 296 300 301 305
326 325 322 314 312 314 313 313 311 310 309 308 307 306 306 305 304 303 302 301 300 299 298 298 298 300 300 298 297 302 300 301
318 316 314 314 315 315 314 312 310 308 306 305 304 303 302 302 300 299 299 298 298 298 297 296 299 300 301 301 300 300 301 298
313 312 312 311 310 310 310 310 310 308 306 304 303 302 301 300 300 301 300 298 298 298 297 296 298 298 299 299 298 298 297 298
311 311 311 310 310 310 310 309 308 305 304 301 302 302 302 303 303 302 300 299 298 297 297 297 297 296 296 296 294 294 295 296
310 310 310 309 309 308 308 307 304 303 302 304 304 303 302 302 302 301 300 299 298 297 296 296 294 292 292 292 293 292 294 293
310 310 309 308 307 306 305 305 304 303 303 303 303 302 302 301 301 300 299 297 296 295 293 291 290 289 288 289 290 291 291 292
309 307 305 303 303 302 302 302 302 302 302 302 301 301 301 300 300 299 297 294 293 293 291 289 288 288 287 287 287 288 289 289
305 303 301 302 302 301 301 300 300 300 300 300 300 300 300 299 299 297 294 296 294 292 290 288 288 288 288 288 288 288 288 286

GFSFLT2_925_thetae_003.txt.gz
Theta_e
338 338 337 337 335 335 334 329 323 320 319 317 315 317 319 319 319 319 318 318 317 316 316 316 315 316 315 315 315 315 315 315
339 337 336 336 336 335 332 326 321 320 317 319 319 321 321 321 320 319 318 317 317 317 317 317 317 317 317 317 317 315 316 316
336 338 337 337 336 333 330 325 320 318 317 321 323 323 323 323 322 320 318 317 317 318 318 319 319 318 319 318 318 319 317 319
335 336 338 338 334 331 327 322 319 317 320 322 323 324 325 325 324 321 319 318 318 319 319 319 319 320 320 318 317 317 318 318
335 337 335 333 329 326 321 319 319 322 324 325 325 326 326 324 320 318 318 318 319 318 317 319 319 319 318 315 314 314 314 314
332 330 326 323 321 319 320 321 322 324 327 326 326 327 325 320 318 318 318 318 315 313 312 313 315 316 314 312 310 308 306 307
327 325 322 321 320 321 323 324 325 326 327 328 327 327 324 319 318 316 313 311 311 310 310 310 312 311 309 308 305 303 303 305
325 324 322 323 325 325 325 324 324 327 326 326 325 324 321 317 311 311 311 311 309 309 308 308 307 306 304 303 302 302 302 302
325 324 322 324 323 321 320 320 320 322 326 326 324 318 311 310 312 313 310 308 307 307 306 304 304 303 303 302 302 301 300 301
325 323 323 322 321 321 321 322 321 321 321 318 315 312 312 311 309 309 307 306 305 305 303 303 303 302 301 303 302 302 303 306
325 322 321 319 322 322 319 320 316 314 312 309 308 309 309 308 307 306 305 304 304 302 301 300 302 301 300 301 300 301 305 306
324 323 321 323 321 321 315 309 309 308 307 307 307 307 307 306 305 304 303 302 301 300 299 300 301 301 299 301 300 301 306 305
324 323 323 322 319 311 311 311 309 307 307 308 307 305 304 303 301 300 299 299 300 299 298 299 300 300 300 299 299 303 303 302
325 324 321 315 312 313 313 311 309 307 306 305 304 302 301 300 302 303 303 302 300 299 298 299 300 299 298 298 300 299 299 301
323 319 312 312 311 309 309 308 308 306 304 303 302 302 303 303 302 302 302 302 301 299 299 299 299 299 298 297 298 298 297 296
312 310 309 308 308 307 307 307 306 304 302 303 304 303 302 302 301 301 302 300 300 299 298 297 296 295 295 295 294 295 295 294
308 308 307 306 306 306 305 303 303 303 303 303 303 303 301 301 301 301 301 299 298 297 296 294 293 292 291 291 291 290 291 291
308 308 305 304 303 301 301 301 301 301 301 301 302 301 301 301 300 300 300 299 297 294 291 291 290 290 289 289 289 289 289 290
304 303 301 301 301 301 300 298 297 297 296 297 296 298 298 299 299 300 299 295 294 293 292 290 290 289 289 288 289 289 289 289
302 302 300 299 296 294 293 291 291 290 289 289 290 293 293 295 298 298 295 294 293 293 293 291 289 289 289 290 289 289 290 289

GFSFLT2_925_thetae_006.txt.gz
Theta_e
338 337 337 336 336 335 334 331 326 322 320 316 313 317 319 318 318 318 318 317 317 317 317 317 317 317 317 317 317 316 319 318
339 338 338 337 337 332 333 329 324 322 319 318 318 321 320 320 320 319 318 317 317 317 317 317 318 318 318 318 317 319 319 318
337 337 336 336 336 333 330 326 322 319 321 322 324 326 326 325 321 318 317 317 318 318 319 318 318 323 322 318 317 317 318 317
337 336 335 335 333 332 330 327 326 326 327 329 327 330 328 327 323 318 317 318 319 319 318 320 322 320 319 317 316 317 316 316
336 333 332 333 330 328 325 324 326 327 330 330 330 330 329 327 325 325 325 321 322 319 319 318 319 318 316 316 315 313 312 312
333 331 331 330 326 325 326 326 328 329 330 331 330 328 325 326 323 323 323 321 318 317 317 317 316 315 315 314 312 311 310 311
330 328 328 326 327 327 328 329 330 331 331 331 326 324 321 325 323 320 318 317 316 316 315 314 312 311 311 311 310 309 309 310
328 326 326 329 329 330 326 324 323 323 329 327 324 320 318 319 319 316 316 315 314 313 311 310 309 309 308 309 308 308 307 309
327 327 329 327 325 325 322 322 321 321 323 324 325 322 321 316 315 316 314 312 311 310 309 309 309 308 308 307 307 307 306 309
326 327 326 321 321 320 320 320 320 320 318 319 318 316 311 312 313 311 308 308 309 309 308 308 307 307 306 306 306 305 305 309
328 326 322 320 320 321 321 317 315 314 312 310 309 308 307 309 310 309 309 308 308 307 306 305 305 305 305 304 304 305 305 306
327 325 322 324 324 321 317 314 312 311 309 309 309 309 309 310 310 309 307 306 306 305 305 305 305 305 304 304 305 303 303 305
327 326 325 325 322 321 318 317 314 310 309 308 308 307 307 307 307 307 307 307 307 306 305 304 304 304 302 302 301 300 302 303
327 326 325 321 320 318 318 317 313 309 308 307 307 306 306 306 307 307 306 306 306 306 304 302 302 302 302 300 301 300 299 301
327 324 319 317 316 315 313 312 311 311 309 308 307 306 306 305 306 305 305 305 304 304 303 302 301 300 299 299 300 300 297 297
321 317 315 312 311 312 312 311 311 308 307 307 307 306 306 305 305 304 304 303 302 303 301 300 298 298 297 296 296 296 298 297
314 312 310 310 310 310 310 309 307 307 306 305 305 304 304 303 303 302 302 301 302 302 300 298 297 296 296 295 295 294 293 293
311 310 309 308 308 307 307 306 304 302 299 299 297 296 296 297 298 301 302 302 302 300 297 297 295 294 293 292 292 292 292 291
310 309 307 307 306 304 301 299 298 297 296 295 295 295 295 295 296 298 301 302 299 297 296 296 294 293 292 291 291 291 291 291
309 308 307 304 301 298 297 297 297 296 296 296 295 295 296 297 299 301 301 299 297 297 297 295 293 292 291 291 291 291 290 290

GFSFLT2_925_thetae_009.txt.gz
Theta_e
336 337 336 335 334 334 333 329 323 321 316 313 315 318 318 317 317 317 317 317 317 317 318 318 317 317 318 316 317 319 321 319
339 338 338 337 335 334 331 325 320 319 318 316 320 319 318 317 323 318 317 317 318 318 318 318 318 319 321 317 317 317 317 318
338 337 336 335 334 328 325 321 318 317 322 321 327 328 327 326 322 318 317 317 318 318 318 318 319 323 322 317 317 316 316 316
337 337 336 335 332 330 328 325 325 326 329 328 327 328 325 322 323 317 317 318 319 318 317 319 321 319 318 317 316 315 314 313
335 335 334 332 329 326 323 323 326 328 330 329 330 328 329 327 326 325 326 324 323 321 320 320 320 318 317 316 315 314 312 312
332 331 330 329 325 324 324 327 328 328 330 330 330 328 328 326 326 325 323 323 321 320 320 319 317 314 314 313 312 311 311 311
329 329 328 328 326 328 329 331 331 332 332 330 330 328 323 321 321 318 321 321 320 319 318 315 313 312 311 311 311 310 310 309
328 326 327 330 331 331 328 327 327 327 329 331 328 326 323 322 322 321 319 319 318 316 313 312 311 310 309 309 309 309 309 309
328 330 331 330 328 326 324 324 322 325 327 329 330 328 326 321 319 315 317 314 312 311 311 310 310 309 309 309 308 308 308 308
329 330 329 327 325 322 320 322 322 322 320 321 320 318 315 312 316 315 312 310 310 310 309 309 309 309 308 308 307 306 307 307
328 329 328 327 321 325 323 320 318 316 314 314 313 313 313 314 313 313 312 311 310 310 309 309 309 308 308 307 306 305 306 306
329 328 326 325 327 323 320 318 316 315 313 313 313 312 312 313 312 311 310 310 310 310 310 309 308 308 306 306 304 303 302 302
330 328 327 328 325 322 320 319 317 314 313 312 311 311 310 310 310 310 310 310 309 309 309 308 307 304 303 303 302 302 302 301
330 329 328 324 322 320 320 319 316 313 312 311 310 310 310 309 309 309 309 308 307 307 307 306 303 302 302 302 302 300 299 299
329 327 324 321 320 318 316 315 314 314 313 311 310 310 309 308 307 307 307 306 304 303 303 304 302 301 300 300 300 300 298 297
326 323 320 318 315 315 316 315 314 312 311 310 309 307 306 304 303 303 303 304 303 302 303 302 301 300 299 299 298 297 298 298
322 319 315 314 314 314 313 312 311 309 306 303 301 300 299 298 298 298 299 302 303 303 303 302 300 299 298 297 296 295 294 295
317 314 313 313 313 312 311 307 304 303 301 299 298 298 298 298 298 298 299 300 302 302 302 300 299 298 296 295 294 294 293 293
315 313 312 312 310 307 304 302 301 300 299 298 298 298 297 297 298 299 300 300 301 301 299 299 298 296 295 294 293 293 293 292
313 313 312 309 304 303 302 300 300 300 299 298 297 297 297 297 298 300 300 300 299 299 299 298 297 295 294 293 293 292 292 292

GFSFLT2_925_thetae_012.txt.gz
Theta_e
329 332 335 335 334 332 330 322 318 316 313 312 316 317 316 316 316 316 316 317 317 317 317 317 316 319 320 316 317 316 316 320
333 333 334 334 334 331 325 319 318 316 313 317 317 317 316 323 326 316 315 316 317 317 317 316 317 319 322 317 317 316 315 317
334 331 333 333 330 327 322 317 315 318 318 326 327 328 327 328 322 315 315 315 316 317 317 319 320 321 321 318 317 315 314 313
334 333 333 331 329 327 320 320 326 326 328 328 329 329 324 322 325 322 323 325 321 323 320 320 320 319 317 316 315 314 312 312
334 332 333 332 329 326 325 326 327 330 329 330 328 329 328 327 326 328 326 324 323 321 321 320 318 316 315 313 313 312 311 311
335 333 329 327 325 324 324 327 328 329 330 329 329 329 328 326 326 324 322 321 320 321 320 316 313 313 311 311 311 310 310 310
330 330 326 325 325 329 329 331 331 331 332 330 330 328 324 321 320 320 321 319 319 317 314 313 311 311 310 310 309 309 309 309
329 328 328 328 331 330 327 328 327 324 329 330 329 327 325 323 323 320 318 318 314 312 311 311 310 310 310 309 309 308 307 309
326 328 332 332 329 326 326 321 324 327 328 330 330 327 326 322 316 316 316 316 311 310 310 310 310 309 309 309 309 308 307 307
329 331 330 329 327 323 321 324 324 321 321 320 320 317 315 316 315 314 313 312 311 311 310 310 309 310 309 308 308 307 305 305
331 330 328 324 323 323 325 322 318 315 315 314 314 314 314 314 314 314 312 311 310 311 310 310 310 309 309 306 306 305 304 302
331 330 329 323 326 323 322 318 317 315 314 314 313 312 312 312 312 311 311 311 310 309 309 310 309 308 304 303 304 303 301 301
330 329 327 325 326 321 319 317 316 314 313 312 311 311 310 310 310 310 310 309 308 307 307 307 307 305 303 302 302 301 300 300
330 328 328 328 324 322 321 318 315 313 313 311 311 311 310 309 309 308 307 307 307 306 304 304 305 304 301 301 299 300 300 298
330 329 328 323 321 320 317 315 314 314 313 312 311 310 308 307 304 303 303 304 305 304 303 304 303 302 301 300 299 298 298 297
330 328 322 320 318 317 315 315 313 312 311 308 306 302 301 299 298 298 298 299 301 303 303 303 303 301 300 299 298 297 295 295
327 322 318 316 316 316 314 312 311 308 303 302 300 299 298 298 298 299 299 299 299 301 303 303 301 300 298 297 296 295 294 294
321 318 315 315 315 313 311 307 304 303 301 300 299 299 298 298 298 299 300 300 301 303 302 300 299 299 297 296 295 294 294 293
317 315 314 314 312 307 304 303 302 301 300 299 299 298 298 298 297 299 300 301 301 301 300 299 299 298 297 295 294 294 293 293
316 314 314 312 306 304 303 302 301 301 300 299 298 298 297 296 297 298 299 301 299 299 299 298 298 297 296 295 294 293 293 292

GFSFLT2_925_thetae_015.txt.gz
Theta_e
331 334 326 327 331 327 319 317 314 310 310 314 315 314 313 314 314 314 315 315 316 316 315 316 318 321 317 317 315 314 317 316
328 329 332 331 331 324 318 316 312 311 315 315 315 315 318 320 316 314 314 315 315 315 317 319 320 318 321 318 315 314 313 314
322 323 330 330 327 321 315 314 314 317 320 324 324 320 327 323 317 314 315 318 318 320 320 320 320 318 316 316 315 313 312 312
323 324 332 329 323 317 315 318 318 322 327 328 329 327 327 323 324 318 322 324 323 321 321 320 318 315 315 313 313 312 311 310
328 330 328 327 322 318 325 327 329 328 329 329 329 328 328 327 327 325 322 322 321 320 318 314 312 312 311 310 310 310 309 309
330 332 329 326 324 326 325 327 328 328 330 328 327 329 326 325 324 322 320 319 319 317 314 312 311 310 310 310 309 309 308 309
332 332 330 328 327 326 329 330 330 331 331 330 329 327 323 321 321 320 318 317 316 314 312 311 310 310 310 309 309 308 307 307
329 325 325 329 329 329 329 328 327 323 327 327 327 325 324 322 320 317 316 315 312 310 310 310 310 309 309 309 308 308 307 306
328 328 330 330 329 327 326 324 322 326 329 328 328 327 322 318 316 315 314 311 311 311 310 310 309 309 309 309 308 307 306 305
326 331 330 329 327 325 320 323 325 324 322 321 318 316 316 314 313 312 311 311 311 311 310 310 309 308 308 306 304 304 304 303
330 331 329 327 323 323 324 321 316 314 313 313 312 312 313 314 313 311 311 311 310 309 309 308 308 309 306 304 303 303 302 301
331 329 327 324 324 323 319 315 315 314 313 314 312 311 311 311 311 311 310 309 309 308 306 307 306 305 304 302 301 300 301 299
330 328 323 325 323 320 318 316 314 313 313 312 311 310 310 310 309 309 308 308 307 306 305 303 302 304 303 300 300 300 299 298
330 329 327 326 322 319 317 315 314 313 312 311 310 310 309 308 306 305 304 304 304 305 304 303 303 303 301 299 297 298 297 297
329 328 326 325 326 320 318 314 313 312 311 311 309 306 305 302 299 298 298 298 300 301 303 303 303 302 300 299 296 295 295 296
329 328 328 324 320 318 315 313 313 312 309 304 303 302 301 299 298 298 298 298 298 298 301 303 302 300 299 297 296 295 292 291
330 327 320 319 317 315 315 313 309 304 304 302 301 299 298 298 298 298 297 299 301 302 302 302 300 299 298 297 297 295 293 292
325 320 316 316 315 313 313 310 306 305 301 300 299 299 298 298 298 297 299 300 302 301 300 299 299 298 297 296 295 293 293 292
318 316 315 315 314 311 308 306 305 303 301 300 298 298 298 297 297 297 298 300 300 299 299 298 298 297 297 296 295 294 293 292
315 315 314 314 312 309 306 303 303 302 300 299 298 298 297 297 296 296 297 300 299 298 298 297 297 297 296 296 294 293 292 292

GFSFLT2_925_thetae_021.txt.gz
Theta_e
328 329 327 323 322 319 315 314 309 310 314 314 313 313 313 313 315 315 314 314 318 320 319 319 320 316 315 314 312 311 311 311
323 322 324 323 321 318 313 311 308 313 314 314 313 313 314 314 315 315 316 317 318 319 319 317 316 315 314 313 312 311 310 309
323 323 322 319 320 317 313 310 311 314 314 314 314 315 314 315 315 316 317 319 320 320 319 316 314 313 312 311 311 310 309 309
319 319 320 323 324 318 313 312 316 315 316 319 323 322 317 316 318 322 322 321 321 321 318 314 313 311 310 309 309 308 308 308
319 321 326 328 323 319 313 315 317 317 320 325 326 324 323 322 322 322 321 319 317 315 312 311 310 310 309 308 308 307 307 308
323 323 327 329 324 318 315 318 319 323 327 325 325 326 325 324 320 319 318 315 313 312 311 310 309 309 308 308 308 307 305 305
323 324 328 329 320 317 317 322 327 328 327 327 326 325 323 321 319 317 315 313 313 311 310 309 309 308 308 308 307 306 305 304
328 329 329 327 319 319 324 328 329 328 328 327 325 323 321 318 316 315 313 311 310 310 309 309 309 308 307 306 304 303 302 302
326 329 328 324 319 324 327 329 329 329 328 327 323 321 320 318 315 313 311 311 310 310 309 309 308 307 306 305 303 301 300 299
328 329 329 328 326 326 327 330 330 329 327 325 324 324 320 316 312 310 310 310 310 309 308 308 307 306 306 304 302 300 298 298
330 330 330 329 328 330 330 329 327 326 326 326 324 319 314 312 311 310 310 310 309 308 307 305 304 304 303 302 300 299 298 297
329 330 329 327 325 325 325 325 324 323 321 318 315 314 313 312 311 310 310 308 307 305 304 303 303 302 302 301 299 298 297 297
328 327 327 324 322 322 322 319 315 314 313 313 312 312 312 311 310 309 307 305 303 303 303 303 302 302 302 301 298 297 296 296
329 328 326 323 322 322 319 314 313 312 312 310 310 310 310 309 308 306 304 302 300 301 301 302 302 301 301 299 295 297 296 295
328 328 326 323 322 320 315 313 313 311 310 310 310 309 309 306 303 301 299 298 297 297 298 302 301 299 299 299 294 294 293 295
327 329 326 324 322 318 315 313 311 310 310 309 308 305 303 301 299 298 297 296 296 298 299 300 301 299 297 297 297 295 291 291
327 328 326 324 322 319 315 313 312 311 310 307 303 301 299 298 298 297 296 296 298 301 301 300 300 299 297 297 296 295 293 290
327 327 325 324 323 320 316 315 312 311 309 305 300 299 298 297 297 296 296 298 299 300 299 297 296 296 296 296 295 294 292 291
327 327 325 324 324 322 318 315 313 311 308 301 298 298 297 297 296 295 295 296 299 299 298 297 296 296 296 296 295 295 293 292
327 327 325 326 325 323 319 315 313 310 305 300 299 298 297 296 296 295 295 298 299 298 298 298 296 296 296 295 295 295 293 292

GFSFLT2_925_thetae_024.txt.gz
Theta_e
332 330 325 320 318 316 316 311 318 318 320 317 314 314 314 315 315 315 317 319 319 319 319 318 316 314 313 312 311 310 310 311
330 328 320 322 322 321 315 313 316 318 314 313 313 313 315 315 315 316 317 318 319 318 318 316 314 313 312 311 311 310 309 310
321 319 318 320 320 316 314 317 316 313 313 314 314 314 315 315 316 317 318 319 319 319 316 314 312 311 310 310 310 309 309 309
321 320 318 317 315 318 313 311 313 314 314 314 315 315 315 316 317 318 320 321 321 317 314 312 311 309 309 308 308 308 308 308
321 319 320 320 320 318 310 312 315 315 316 320 320 316 316 318 322 322 320 318 315 313 311 311 310 309 308 308 307 306 306 308
322 321 320 321 326 320 313 316 316 318 323 325 324 323 322 321 322 318 316 313 312 312 311 310 309 308 308 307 306 306 305 304
320 322 325 328 324 318 313 317 318 321 323 325 325 325 324 318 317 315 314 313 313 311 309 308 308 308 307 306 306 304 304 303
321 324 327 329 324 318 315 319 323 325 327 326 325 323 322 319 316 315 314 312 310 309 309 309 308 307 306 304 304 303 302 302
323 322 328 329 323 318 318 323 327 328 327 326 324 322 319 317 316 314 312 311 310 309 309 308 308 306 305 303 302 301 301 300
324 327 328 328 324 319 324 328 329 328 327 326 323 319 317 317 315 312 310 310 309 309 308 307 306 305 304 302 300 299 298 298
325 326 328 326 323 321 325 329 329 328 327 326 322 320 318 316 312 310 310 309 308 308 307 305 303 303 302 300 298 297 297 296
326 328 328 327 326 327 326 328 328 328 326 324 324 320 315 313 311 310 309 309 308 305 303 303 302 302 300 299 297 296 296 295
328 329 328 329 327 327 327 328 326 325 324 322 319 315 313 311 310 309 308 306 303 303 302 302 301 301 300 298 296 295 295 294
328 329 330 329 327 327 326 324 322 320 317 314 313 312 311 310 309 307 303 301 299 299 299 301 301 301 300 298 295 296 295 293
329 328 328 326 325 324 322 319 315 313 312 311 311 310 309 308 305 301 298 297 296 296 297 299 300 298 299 299 295 295 293 294
328 327 326 325 324 322 320 316 312 312 311 310 309 308 306 303 301 298 297 296 296 297 299 300 301 299 298 298 297 295 293 292
328 327 326 325 323 321 319 314 313 312 311 309 307 304 301 300 298 297 296 295 296 298 300 300 299 298 298 297 296 295 294 290
327 326 326 325 323 321 319 316 313 311 309 307 303 301 299 298 297 296 295 297 298 299 299 298 297 296 295 295 295 294 293 291
326 326 325 324 323 321 319 316 313 312 310 307 301 299 298 297 296 295 297 298 297 299 298 297 297 296 295 295 295 295 294 292
325 325 325 325 324 323 320 315 314 312 311 309 304 300 299 297 296 296 298 295 294 297 298 298 297 296 296 296 295 295 294 293

GFSFLT2_925_thetae_027.txt.gz
Theta_e
331 330 326 321 319 318 318 322 320 317 317 315 314 315 315 315 316 319 319 319 318 316 315 315 313 312 311 310 310 309 316 316
329 324 318 316 319 323 323 321 319 316 317 316 314 315 316 315 315 318 319 318 319 318 316 314 313 312 311 310 309 309 312 313
321 317 315 322 323 321 321 320 319 321 317 314 314 317 317 316 316 317 318 319 317 316 314 312 311 311 310 309 308 308 309 312
318 317 316 315 316 317 317 319 313 314 314 314 315 316 316 316 318 319 320 320 316 314 312 310 310 309 308 308 307 307 308 310
319 319 317 314 314 315 316 311 315 315 314 315 315 316 316 317 320 321 320 317 314 312 310 310 309 308 308 307 306 306 306 307
317 317 316 317 317 317 315 317 317 315 316 317 316 316 318 322 321 318 316 314 312 311 311 309 309 308 307 307 306 305 305 305
319 319 319 319 319 322 316 317 314 316 322 323 323 321 321 321 316 314 314 313 312 311 310 309 308 308 307 307 305 304 304 303
321 323 323 322 325 321 314 316 316 320 323 324 324 324 322 318 316 315 314 312 311 310 309 309 308 307 306 305 303 303 303 302
323 323 324 327 326 319 314 317 319 322 324 326 325 323 321 319 316 315 312 311 310 309 309 308 307 306 304 303 303 302 301 300
323 323 325 328 327 318 316 320 323 326 326 326 324 322 321 317 315 313 311 310 309 309 308 307 306 304 303 301 300 299 299 298
324 323 323 329 326 319 318 322 327 328 326 325 324 320 317 316 315 312 310 309 309 308 308 305 305 303 301 299 298 297 297 297
325 325 326 328 326 320 321 325 328 327 327 326 323 319 317 314 312 310 309 308 308 307 303 302 303 302 300 298 297 296 295 296
326 326 326 328 326 322 323 325 328 327 326 324 322 319 315 312 310 309 309 308 305 303 302 302 301 300 300 299 297 296 295 294
327 327 327 328 326 325 325 325 326 324 324 322 321 317 313 311 310 309 307 305 301 300 301 302 301 300 302 301 303 299 297 295
328 327 327 327 327 326 326 325 323 318 317 317 315 313 311 310 309 307 303 299 297 296 298 300 301 299 300 301 302 302 299 296
328 327 327 328 328 327 325 323 319 315 315 313 312 311 310 309 306 301 299 297 296 297 298 299 300 300 298 298 299 299 300 299
328 327 326 327 327 325 323 322 319 316 313 311 311 309 308 306 302 299 297 295 297 299 299 299 298 298 299 299 298 296 295 296
328 327 325 324 325 325 323 321 319 314 311 309 308 306 303 301 299 298 296 296 301 303 300 297 297 297 298 297 296 296 296 295
327 327 326 324 324 323 322 320 318 314 312 310 308 306 303 300 299 297 295 300 303 298 297 297 297 297 297 297 296 296 295 295
326 327 326 324 323 324 322 318 317 313 312 309 308 306 303 301 298 296 296 300 297 297 297 298 297 296 296 296 296 296 295 295

GFSFLT2_925_thetae_030.txt.gz
Theta_e
332 330 328 327 324 321 322 325 323 322 320 322 322 320 320 318 317 317 316 315 315 315 315 313 312 311 310 310 309 313 315 316
329 327 323 316 321 321 323 322 325 320 319 319 317 317 317 319 319 319 318 316 316 315 314 313 312 311 310 309 310 313 313 313
324 321 322 318 318 318 324 326 322 321 317 316 318 321 320 321 322 318 319 319 317 314 314 313 311 310 309 309 311 312 313 312
319 318 316 317 316 318 328 327 326 323 318 321 324 323 322 322 322 319 318 317 314 313 312 311 313 313 311 310 311 311 311 311
320 321 320 321 321 323 325 323 319 318 317 320 324 322 322 324 323 321 318 315 313 312 313 314 313 313 311 310 310 309 308 308
317 316 312 311 311 313 316 316 318 321 316 322 324 322 323 323 322 320 318 317 316 314 315 314 312 311 311 310 309 308 307 308
314 312 310 311 313 314 318 321 320 319 321 322 322 321 323 322 320 318 317 316 316 316 314 313 312 310 310 309 307 306 306 306
317 316 315 316 318 320 319 320 319 321 324 325 325 322 322 320 319 318 316 316 316 314 313 312 311 310 309 307 305 305 305 305
319 321 322 320 323 324 319 321 321 323 327 328 327 323 321 320 319 318 317 316 314 313 312 311 310 308 307 305 304 304 303 305
323 324 324 324 325 324 320 321 323 326 328 328 326 323 321 320 319 318 316 314 313 313 313 311 309 307 305 304 303 303 303 303
323 324 325 327 329 325 322 323 326 329 329 328 325 322 321 320 319 317 315 314 314 313 312 309 307 306 305 303 303 302 302 301
325 326 328 330 329 324 321 325 328 330 329 327 324 322 319 319 318 316 314 313 313 312 309 306 306 305 303 303 303 302 301 301
326 326 327 329 328 324 322 326 328 329 329 327 324 321 318 318 317 315 313 313 312 310 307 306 305 304 305 305 304 302 301 300
328 328 328 329 326 323 323 325 327 329 327 326 323 321 319 318 316 314 312 312 310 307 305 304 304 304 307 307 311 306 302 300
328 328 329 328 326 324 326 327 325 326 324 323 323 320 318 316 315 313 312 310 308 306 305 304 306 305 304 306 309 308 305 302
328 328 328 329 328 326 325 326 326 325 323 323 321 318 317 314 313 312 310 306 304 303 303 305 305 306 303 303 303 301 302 303
329 329 329 329 329 327 326 327 327 327 323 321 318 315 313 312 310 308 306 304 303 303 304 304 305 305 304 304 302 300 299 300
330 330 330 329 329 328 328 327 328 325 321 316 314 309 309 308 307 306 305 303 303 304 302 304 304 303 303 301 299 300 301 299
331 331 330 329 329 329 329 328 327 323 319 315 311 310 307 307 305 305 302 301 302 302 302 302 301 302 300 300 300 299 298 297
332 331 331 330 329 328 327 326 324 321 318 313 311 309 307 305 304 303 301 299 301 302 303 301 302 301 301 300 299 298 297 297

GFSFLT2_925_thetae_033.txt.gz
Theta_e
334 331 330 331 328 326 326 327 328 329 330 326 323 321 319 316 314 315 316 316 316 315 313 312 311 311 310 311 313 315 316 317
332 331 331 329 328 329 328 326 328 328 328 324 322 319 317 316 315 315 315 316 315 314 313 312 311 311 310 312 313 314 314 316
329 327 326 325 323 324 326 327 326 325 324 320 320 319 321 324 322 316 316 316 316 314 313 312 311 310 310 312 313 313 313 314
325 321 324 322 322 322 320 316 314 324 321 322 322 320 324 323 319 319 318 317 315 313 312 314 315 314 313 312 312 311 311 312
320 319 318 316 314 313 312 317 324 323 324 324 325 323 322 321 319 319 317 315 313 313 315 317 317 314 313 313 311 310 309 312
318 316 314 313 313 315 318 321 323 323 323 325 321 323 324 324 323 322 319 319 318 319 318 317 315 313 313 312 310 308 308 312
318 317 317 317 319 320 319 317 318 319 316 323 319 323 324 324 324 323 321 321 319 319 318 315 314 313 311 310 308 308 308 308
313 312 313 314 314 315 317 319 316 319 320 321 323 322 324 324 323 322 321 320 320 318 316 315 313 312 311 308 307 307 307 307
312 311 311 312 313 313 314 316 318 320 320 323 325 323 325 324 323 322 321 320 319 317 315 314 313 310 309 308 307 306 306 306
313 313 317 317 316 319 321 320 321 320 324 328 328 327 326 325 323 322 321 320 318 316 315 314 312 310 308 307 307 306 306 305
320 321 320 321 322 324 321 320 323 323 325 327 329 327 325 325 324 322 320 319 317 316 315 313 311 309 309 307 307 307 306 304
324 325 324 324 326 326 322 320 322 323 329 329 329 327 325 325 323 321 320 319 317 315 314 310 310 309 306 306 307 307 306 305
324 324 324 326 326 325 321 320 323 327 329 330 329 326 325 324 323 321 320 318 316 315 312 310 308 307 309 310 309 307 306 305
325 325 326 326 325 324 321 321 322 326 329 329 328 327 324 324 323 321 319 317 316 314 310 309 309 308 311 312 314 310 307 305
327 327 327 327 326 325 321 321 324 326 328 329 329 327 325 323 322 321 319 317 315 313 310 309 308 309 309 310 313 313 308 306
328 327 327 327 327 325 322 324 325 327 328 328 328 327 325 323 322 321 318 316 313 312 309 308 308 309 311 308 308 308 307 307
328 328 328 328 328 327 324 326 326 326 327 328 327 327 324 323 321 319 317 315 311 309 307 307 308 309 308 308 308 306 304 304
328 328 327 328 328 329 328 328 327 327 329 328 327 324 321 320 318 316 313 310 308 307 306 306 307 307 307 307 306 304 304 304
330 329 329 328 329 329 329 329 328 328 329 327 324 321 316 314 313 310 309 308 306 305 304 303 305 305 307 306 303 304 303 301
332 331 330 329 330 330 330 330 330 330 329 326 321 316 314 317 318 309 307 306 305 304 301 303 304 304 305 303 304 303 301 300

GFSFLT2_925_thetae_036.txt.gz
Theta_e
335 335 332 330 328 327 325 327 328 329 328 326 323 321 322 321 320 318 316 315 314 312 312 312 312 312 313 314 314 316 318 319
331 330 330 331 329 328 330 330 329 328 326 325 322 317 315 316 317 316 316 315 314 313 312 312 312 312 313 314 314 314 317 317
330 329 328 327 326 329 329 330 329 326 325 323 319 317 316 318 316 316 316 315 315 314 313 313 313 312 312 313 313 312 315 315
329 329 327 324 322 323 318 327 327 324 320 320 322 322 324 320 316 316 316 316 314 314 314 314 314 314 313 312 311 310 313 312
326 325 326 320 319 323 325 324 321 319 322 322 322 325 322 319 318 317 316 315 314 314 315 316 315 314 312 312 310 310 312 311
317 318 319 322 321 317 313 316 318 322 325 324 323 323 321 319 319 319 316 315 315 316 318 317 313 313 312 311 309 309 312 312
318 317 317 314 312 312 313 313 318 321 324 324 323 322 325 322 323 322 319 319 318 319 317 315 314 312 311 309 309 308 308 313
317 315 315 314 313 314 315 319 320 321 318 319 319 324 324 324 326 323 322 321 320 319 317 315 314 313 310 308 308 307 307 310
315 313 314 318 319 319 319 317 313 314 318 319 324 322 323 325 324 322 322 320 320 318 316 315 313 311 309 308 308 307 307 307
316 316 317 315 314 314 315 315 316 317 318 321 321 323 324 324 324 323 321 321 319 317 315 314 313 311 309 308 307 307 306 306
315 316 313 315 314 314 314 316 319 321 321 326 326 327 326 325 325 323 322 320 319 316 316 314 313 310 309 308 307 307 307 306
314 315 315 316 314 314 317 320 320 321 321 326 325 326 327 325 325 323 321 320 318 316 315 314 312 310 310 308 308 308 307 306
318 318 320 319 319 320 325 320 321 321 323 327 328 327 327 325 326 323 321 320 318 317 315 311 310 309 308 309 309 308 307 306
324 324 324 323 324 326 325 322 321 322 326 327 326 325 326 325 325 323 322 320 318 316 315 311 310 308 310 312 312 309 308 307
326 326 326 325 326 325 326 322 321 322 328 326 327 328 327 325 324 324 322 320 318 316 314 311 310 309 309 310 310 311 309 307
325 324 325 325 326 326 326 322 321 324 329 329 327 327 328 326 324 323 321 320 319 316 313 310 309 310 309 310 309 308 307 305
327 327 327 327 327 328 327 323 322 323 327 328 329 329 328 326 325 323 321 319 317 315 312 310 308 309 309 309 311 310 307 305
329 328 328 327 328 327 327 325 324 326 328 328 329 327 326 327 324 322 320 318 316 312 310 308 308 309 307 308 308 308 306 305
330 330 329 329 329 330 328 327 326 327 327 329 329 328 327 325 323 320 319 318 317 313 308 307 307 306 307 309 308 306 303 304
329 329 329 329 329 330 330 328 329 330 328 329 328 327 324 323 321 319 318 318 314 311 307 306 304 305 306 307 306 304 303 302

GFSFLT2_925_thetae_039.txt.gz
Theta_e
335 336 333 331 328 320 324 328 327 327 331 331 331 331 331 326 319 315 314 312 313 313 314 313 313 314 314 314 318 318 318 314
333 333 333 330 327 327 330 329 326 325 325 328 329 328 326 321 317 315 315 313 313 313 314 312 313 313 314 313 317 318 317 314
329 330 331 328 324 328 331 328 326 324 322 320 320 322 320 317 316 316 315 314 314 314 313 312 312 312 312 312 315 315 314 312
329 325 323 321 321 324 331 329 326 323 319 315 316 316 317 316 316 316 315 315 315 313 313 312 314 313 312 310 313 312 312 308
327 325 323 322 323 321 324 325 322 320 319 317 320 320 316 316 316 316 316 315 314 313 314 315 314 313 311 310 311 312 311 310
327 322 319 316 317 320 323 320 321 323 321 322 323 322 318 316 316 317 316 315 315 315 317 314 312 310 309 309 309 310 312 308
321 322 322 323 321 322 320 320 323 323 323 322 323 321 319 319 319 318 317 316 316 317 318 313 313 311 310 308 307 308 311 310
317 317 318 321 320 317 317 318 320 319 321 318 322 322 320 321 322 322 319 319 318 319 316 315 313 311 309 308 307 307 308 310
317 315 317 318 317 317 314 313 315 317 319 318 321 322 324 325 325 323 322 321 320 319 316 315 313 312 309 307 307 307 307 307
316 315 315 316 316 314 314 312 314 317 317 319 321 323 324 324 324 323 322 321 321 319 315 314 312 311 309 308 307 307 307 306
315 315 314 314 315 316 317 317 315 316 314 318 320 322 322 323 323 323 322 321 319 318 315 314 313 311 308 307 307 307 307 306
314 315 317 317 318 318 316 317 314 314 318 319 320 322 325 324 323 324 322 321 320 318 316 315 313 311 309 309 308 308 307 306
316 316 315 315 314 314 314 315 317 318 320 322 324 325 324 326 324 325 323 322 320 318 316 315 311 311 309 308 308 308 307 307
315 315 314 317 314 314 314 315 320 318 319 320 323 326 325 325 325 325 323 322 320 318 317 313 312 309 308 310 308 309 308 307
314 314 318 316 316 314 315 321 324 319 321 320 323 325 326 324 326 325 323 322 320 319 316 315 312 310 308 310 308 308 307 308
318 318 322 320 318 321 322 324 323 320 320 322 325 326 324 323 326 325 324 322 320 320 316 314 311 309 309 309 310 309 305 305
322 323 322 322 322 323 324 323 324 322 320 321 324 325 325 327 325 324 324 321 321 319 315 312 310 309 310 310 309 310 309 306
323 325 325 323 323 324 326 325 324 321 321 326 326 327 327 327 326 324 323 322 320 317 316 314 313 312 309 309 309 309 308 306
324 324 324 324 325 325 326 326 326 322 320 321 328 328 327 326 327 325 324 322 319 318 316 314 312 309 308 308 309 309 308 307
326 326 326 325 325 326 326 326 327 324 324 326 327 327 326 327 326 326 322 321 320 319 318 314 310 308 308 307 307 309 306 303

GFSFLT2_925_thetae_042.txt.gz
Theta_e
332 331 326 332 323 329 324 328 329 331 330 331 330 325 323 317 313 312 314 314 315 312 311 314 313 313 319 319 318 315 312 314
331 333 331 322 318 330 324 326 331 333 330 330 329 324 320 315 313 313 314 314 314 312 313 313 313 312 316 319 317 314 313 314
332 330 328 324 324 322 325 327 330 331 330 330 329 324 318 315 315 313 313 315 313 311 312 312 312 311 315 317 316 313 313 313
325 323 327 326 324 328 327 327 330 331 330 329 326 320 316 316 316 316 316 314 313 312 312 312 312 311 311 315 313 312 310 315
326 324 322 320 325 327 326 325 324 324 324 322 320 317 316 316 315 315 315 314 313 313 314 314 312 311 310 312 311 311 311 310
324 322 322 321 323 326 326 323 319 316 317 316 316 316 316 317 316 316 315 314 314 316 316 314 312 310 309 310 311 311 310 308
324 323 322 321 322 327 323 321 319 316 319 318 317 316 316 316 317 316 315 314 316 317 316 313 311 309 308 308 308 310 310 308
323 322 322 324 323 324 322 323 322 320 322 322 321 319 317 317 318 317 316 315 316 318 316 313 311 309 308 307 307 307 308 309
319 318 318 317 320 321 322 323 324 323 323 323 321 319 318 318 319 318 317 317 318 318 315 314 313 310 308 307 307 307 307 308
318 317 319 320 320 321 321 320 320 319 321 322 322 323 322 322 324 322 320 321 319 319 316 315 314 311 309 307 307 307 307 306
317 317 317 319 320 319 318 316 316 315 315 316 320 322 324 323 324 323 323 321 320 320 318 314 312 311 309 308 307 307 306 307
316 317 318 318 318 317 315 314 315 315 315 316 319 321 323 322 323 323 322 321 320 318 315 314 313 312 310 308 307 307 307 306
316 316 316 316 316 316 316 315 313 314 315 314 315 319 321 323 323 323 324 322 320 319 317 315 314 312 308 308 307 307 307 307
315 315 315 315 316 316 316 315 314 314 315 315 318 320 321 325 325 325 324 322 321 320 319 315 313 311 309 308 306 308 307 307
315 315 315 314 316 316 315 315 316 315 315 316 319 320 324 325 325 325 324 324 321 321 319 316 313 309 309 309 306 307 306 307
315 315 315 316 315 314 313 315 315 317 319 319 318 320 322 324 325 325 325 324 321 321 319 317 316 311 308 309 310 310 306 305
315 315 314 314 316 314 314 314 316 318 321 320 318 319 319 324 326 324 325 324 323 321 320 318 315 312 314 309 309 308 307 306
314 313 313 317 316 316 316 316 319 322 323 321 320 318 321 324 325 323 324 325 323 322 320 317 314 314 313 309 309 309 309 308
315 315 316 318 320 318 317 319 320 322 322 322 321 321 321 323 325 324 325 324 324 322 320 316 314 315 311 311 310 309 310 309
318 318 319 319 320 320 319 320 322 322 322 321 323 322 322 324 325 326 325 324 323 321 320 316 315 315 312 312 310 309 309 308

GFSFLT2_925_thetae_045.txt.gz
Theta_e
333 330 332 329 325 320 323 329 331 333 329 327 324 319 316 313 312 313 313 312 313 314 320 320 320 319 317 315 312 312 314 318
334 333 329 326 326 324 323 326 330 332 328 328 322 316 313 313 314 315 313 312 312 312 313 313 317 319 318 316 313 313 314 317
331 330 329 327 323 318 324 327 330 331 328 326 323 316 313 314 314 314 313 311 312 311 312 312 315 318 317 315 313 313 314 316
328 326 324 321 318 320 324 328 327 327 328 325 319 315 313 314 314 315 312 311 312 312 312 311 314 316 316 313 312 312 313 316
325 324 324 321 320 319 321 321 322 326 329 322 318 315 315 314 314 314 313 312 312 312 313 311 310 312 314 312 312 313 312 314
326 325 323 321 319 318 319 322 323 327 328 321 316 316 315 315 315 314 313 313 313 315 314 312 310 310 311 311 311 311 310 310
323 325 324 323 320 321 321 324 326 326 327 319 316 316 316 315 316 315 314 315 316 316 314 312 309 309 310 310 310 310 309 308
323 322 322 323 324 326 325 325 326 326 322 318 316 316 316 316 316 315 314 315 317 317 315 311 308 308 308 308 308 308 308 308
323 322 321 322 325 325 322 319 319 319 317 316 316 316 316 317 316 315 315 315 317 317 313 312 310 308 307 307 307 307 307 307
322 321 320 319 324 322 322 320 316 319 319 317 316 316 316 317 317 317 316 316 317 318 314 313 312 309 307 307 307 307 307 307
319 321 321 321 322 323 323 323 320 323 323 320 319 318 318 319 321 319 318 318 318 319 316 314 313 311 308 307 306 307 307 307
318 319 321 320 320 321 320 322 321 322 322 322 322 322 323 323 323 323 321 320 320 319 317 315 314 312 309 307 307 306 306 306
317 317 317 318 319 320 319 321 317 316 317 318 321 321 323 324 324 324 323 322 321 320 319 316 313 311 308 307 306 306 306 306
316 317 318 318 317 317 318 317 316 316 315 315 317 318 319 321 322 322 323 322 321 320 318 315 313 311 309 306 304 306 306 306
316 316 317 317 317 317 317 317 315 314 315 315 315 315 315 318 321 322 323 323 323 320 318 316 315 312 310 310 305 307 307 308
316 316 316 316 316 316 316 316 315 314 313 313 313 314 315 319 322 323 324 324 323 322 319 318 317 313 309 309 310 310 307 308
315 316 316 316 315 315 315 314 314 314 314 314 315 314 315 318 320 325 325 325 324 324 320 318 317 314 311 308 309 309 308 307
315 314 315 315 314 314 314 314 314 314 315 316 316 316 316 318 319 320 322 324 325 324 323 320 319 315 315 313 312 310 308 307
314 314 314 314 314 314 314 314 314 314 315 316 317 317 318 318 319 319 321 324 324 323 323 321 320 318 316 314 313 313 310 309
314 314 314 314 314 315 315 315 314 314 315 317 318 318 319 319 320 319 320 324 324 323 322 321 320 318 315 313 314 312 309 310

GFSFLT2_925_thetae_048.txt.gz
Theta_e
334 331 329 328 327 325 318 326 331 329 329 329 328 328 328 327 321 315 317 322 321 322 320 316 314 312 312 312 314 315 317 318
329 331 331 328 325 322 318 324 324 326 328 328 327 323 324 318 313 314 319 321 321 321 319 318 315 314 312 312 313 315 317 317
331 332 330 327 322 317 324 326 327 326 328 327 321 318 314 312 312 313 313 315 317 319 319 319 316 315 313 311 312 315 317 318
331 330 327 325 321 319 320 318 322 327 327 323 317 313 314 312 312 312 312 312 312 313 316 317 317 315 313 311 312 315 317 318
330 329 327 326 325 318 321 325 325 324 323 320 315 313 314 313 311 311 312 312 312 313 315 315 315 314 312 312 313 315 316 317
323 325 324 322 323 323 318 319 319 322 322 318 313 313 314 313 311 311 311 312 312 311 311 311 313 314 312 311 312 313 314 316
323 320 319 319 320 323 323 323 322 321 321 317 314 313 314 314 313 312 312 313 314 312 311 310 311 313 312 311 312 311 311 312
324 322 321 319 319 320 320 319 319 316 322 318 315 314 315 314 313 313 313 315 315 314 313 311 310 311 311 311 310 310 309 309
324 323 321 320 320 320 321 321 321 321 323 319 316 315 315 315 314 314 314 316 316 315 312 309 308 309 309 309 308 308 308 307
323 322 322 321 320 320 321 322 317 321 320 320 317 316 315 315 315 314 314 317 317 317 312 310 308 307 307 307 308 307 307 307
321 322 321 323 321 324 323 322 322 320 322 320 317 316 316 316 316 315 315 315 317 317 313 311 309 308 307 307 307 307 307 307
321 321 321 322 321 322 322 320 321 319 320 318 317 317 316 317 317 316 316 314 315 317 315 313 312 310 308 307 306 307 307 307
320 320 320 319 319 320 322 321 321 317 317 320 318 317 317 318 319 320 317 316 317 318 317 315 314 312 308 306 306 306 306 306
318 319 319 320 319 319 320 322 321 321 321 322 321 321 322 322 322 322 323 321 321 321 319 317 314 312 309 306 304 306 306 306
318 318 319 320 319 320 319 319 320 319 316 316 318 321 320 319 320 322 322 323 322 322 320 318 317 312 310 310 306 307 306 307
317 317 318 318 318 318 318 318 319 318 316 315 314 315 316 316 316 319 321 321 322 322 321 319 317 314 310 310 310 309 307 308
317 317 317 317 317 317 317 317 317 317 316 315 314 314 314 314 314 316 319 322 322 323 323 320 316 314 313 311 308 309 309 308
315 316 316 317 317 316 316 315 315 316 316 316 314 313 313 313 313 314 317 319 323 324 324 323 320 316 315 314 313 310 308 307
315 315 315 316 316 316 316 316 316 315 315 315 315 315 314 313 315 315 316 318 319 322 323 323 321 319 318 315 313 312 312 311
314 314 314 315 315 315 315 315 314 315 314 314 314 314 315 315 316 316 316 317 319 320 322 322 321 320 319 319 316 314 312 311

GFSFLT2_925_thetae_051.txt.gz
Theta_e
332 330 327 325 324 328 328 331 329 331 329 328 330 330 329 329 326 322 324 326 323 320 314 311 312 311 313 315 316 318 318 318
331 329 327 325 325 325 327 326 327 327 328 328 329 330 329 326 319 320 321 323 322 316 313 313 312 312 313 315 315 317 318 318
331 331 330 326 325 326 325 326 325 325 328 327 329 329 327 319 322 320 320 322 320 317 314 314 312 312 313 315 317 318 318 319
331 331 331 329 328 326 323 325 325 325 329 327 327 326 320 320 318 320 321 321 319 317 316 314 316 317 315 315 317 318 318 319
331 330 331 329 326 321 324 325 324 325 328 325 323 318 314 314 316 321 321 320 323 320 316 319 318 317 316 316 318 318 318 319
328 328 327 326 322 322 324 324 324 323 326 321 315 314 316 313 312 313 313 317 321 319 318 316 313 312 311 312 317 317 318 319
328 328 326 324 322 321 320 322 322 323 322 317 314 315 313 313 312 312 312 313 314 315 316 315 313 312 311 312 315 317 318 318
323 324 324 322 321 320 322 320 322 324 321 315 313 313 312 311 312 312 312 311 312 313 313 313 314 312 311 313 312 314 316 318
321 320 321 322 320 320 319 322 319 321 322 314 314 314 312 311 311 312 313 313 312 311 311 311 311 313 313 312 312 311 310 311
322 320 319 321 320 319 320 319 318 320 319 319 316 314 313 312 312 312 315 314 313 312 310 309 311 311 310 310 309 308 308 308
323 322 319 319 320 320 321 320 319 318 317 320 318 314 314 313 313 313 315 316 314 313 310 308 308 309 308 308 308 308 307 307
323 322 321 320 320 320 320 321 319 317 317 321 320 316 315 314 314 313 314 316 315 314 311 310 309 308 307 307 307 307 307 307
322 322 321 321 320 320 319 321 319 318 318 321 321 317 316 315 315 314 314 314 316 316 313 312 310 308 308 307 307 306 307 307
320 321 321 320 321 320 320 320 319 319 320 321 320 317 317 316 316 316 315 314 314 316 316 314 314 311 311 310 313 310 306 307
319 320 321 321 320 320 320 319 318 317 319 320 318 317 316 316 317 319 319 318 317 317 318 317 316 313 312 315 314 317 312 309
319 319 319 320 319 320 319 319 319 317 316 318 321 321 319 320 321 321 321 321 321 322 321 320 318 317 311 311 312 313 316 314
318 319 320 319 319 319 319 320 319 319 317 315 316 319 319 320 318 319 319 319 321 321 321 321 320 318 315 313 311 309 309 310
317 318 319 319 320 319 319 318 318 318 317 316 317 315 316 315 315 315 315 315 318 321 322 321 321 319 316 315 313 312 309 308
316 317 318 319 318 318 318 318 318 317 317 317 316 315 314 313 313 314 314 314 314 317 320 322 322 322 319 316 314 313 313 312
316 316 318 318 318 317 317 317 317 317 317 317 317 316 316 315 314 314 314 314 315 316 318 319 320 320 319 318 319 318 316 314

GFSFLT2_925_thetae_054.txt.gz
Theta_e
337 334 333 328 329 333 336 335 333 331 331 332 331 330 329 330 331 331 330 328 320 316 316 317 318 319 319 316 319 319 320 320
334 332 331 333 330 331 334 333 329 327 329 326 330 330 330 330 329 327 327 327 316 312 313 312 312 315 315 317 318 319 319 319
332 330 328 328 326 326 329 328 328 327 328 328 329 330 329 327 326 324 327 321 315 312 312 312 314 315 315 316 319 319 319 319
332 328 327 327 327 329 329 329 330 328 326 324 330 329 327 325 328 323 324 319 315 313 313 313 316 317 317 318 319 320 320 319
332 330 328 327 325 324 323 328 324 323 325 323 328 327 324 327 328 327 326 320 320 318 317 319 318 317 317 318 320 320 320 319
331 331 329 327 325 326 326 327 322 324 320 320 327 324 323 325 325 325 325 323 322 321 319 319 319 317 318 319 320 320 320 319
327 328 329 327 326 325 325 326 321 324 322 323 324 322 322 322 323 324 324 324 323 321 320 319 318 317 318 319 319 320 320 319
327 325 326 325 323 323 325 325 323 324 323 323 322 321 320 319 319 319 320 322 322 320 319 318 316 316 317 317 318 319 320 320
323 323 324 324 322 323 324 322 323 322 322 320 320 319 318 317 316 316 317 318 318 317 318 316 316 316 317 317 317 318 318 319
323 322 322 321 321 321 322 322 322 323 322 321 319 315 315 316 316 316 316 316 316 316 317 317 316 315 316 316 316 315 316 317
322 321 321 321 321 320 319 319 322 321 320 319 315 315 314 316 316 316 318 316 316 315 315 315 315 315 314 314 313 313 313 313
323 322 321 321 320 321 321 319 320 321 319 321 320 318 318 317 316 317 319 317 317 316 314 314 313 313 312 312 312 312 312 312
323 321 321 321 320 321 320 319 318 317 316 320 323 319 318 318 317 318 318 319 319 318 317 315 314 313 312 312 312 312 312 312
322 322 321 321 321 321 320 320 318 317 317 319 322 321 319 319 318 318 318 320 321 320 319 318 317 314 315 317 319 316 313 312
322 321 321 320 320 320 320 320 319 318 318 320 321 323 320 319 320 319 319 319 320 321 321 320 320 318 317 320 322 322 320 316
323 321 321 321 320 320 320 319 319 319 318 319 321 323 322 320 320 321 321 320 320 321 322 321 322 321 318 318 320 321 322 322
323 322 322 321 321 320 319 319 319 318 318 319 321 322 322 321 321 322 323 324 323 324 323 323 323 323 321 321 319 319 319 320
322 322 322 321 320 319 319 320 319 319 318 318 319 320 321 321 322 324 323 325 324 324 325 325 324 323 323 323 322 321 320 319
323 321 321 321 320 321 321 320 321 321 318 318 318 319 319 320 320 321 321 322 323 323 322 325 325 324 324 323 322 322 321 321
321 322 322 322 321 321 323 322 322 321 320 319 318 317 318 318 319 319 320 320 320 321 321 322 322 323 323 323 323 322 321 318

GFSFLT2_925_thetae_060.txt.gz
Theta_e
341 338 337 333 331 333 334 331 332 335 334 335 335 334 332 328 329 328 328 329 326 322 322 321 321 321 320 320 321 322 322 321
340 338 338 336 331 333 332 328 325 324 334 334 334 332 328 328 330 328 327 326 323 322 322 322 320 320 320 320 321 321 320 320
335 337 337 335 331 332 331 327 323 332 333 333 331 328 329 330 329 326 323 323 321 322 321 321 320 316 320 320 321 320 321 319
334 335 335 333 332 332 331 326 324 331 331 330 331 329 330 328 330 325 321 319 320 320 320 320 316 318 319 320 321 321 320 319
334 333 333 332 331 330 330 325 328 332 329 329 330 331 330 329 328 322 320 318 317 316 314 314 313 318 320 322 322 320 320 319
333 333 332 330 329 330 329 328 328 329 329 329 326 324 328 328 327 320 319 318 314 310 315 318 315 319 321 322 322 320 319 318
331 330 329 330 327 329 328 326 327 328 327 327 326 325 326 325 326 321 320 318 318 313 319 318 317 318 322 321 323 321 320 318
328 330 330 328 328 328 329 328 327 327 324 322 321 324 323 324 327 323 322 320 320 319 322 320 319 320 322 322 322 320 320 319
328 330 330 328 327 326 328 327 327 324 321 320 320 322 321 326 326 322 323 322 322 320 321 320 320 320 322 322 322 322 320 319
327 327 328 328 326 326 325 327 325 323 321 320 324 325 324 325 326 325 323 324 323 322 320 319 319 320 321 321 321 321 322 321
325 326 327 327 327 326 326 326 325 322 320 320 323 323 325 324 325 325 324 324 323 321 319 318 319 320 320 320 320 320 320 321
325 324 324 324 323 324 324 325 323 321 320 319 318 322 322 323 321 320 321 322 321 320 319 318 318 319 319 319 319 319 319 319
325 324 323 323 323 322 323 322 322 321 319 321 323 322 321 318 317 318 318 319 318 319 319 319 319 317 318 318 317 316 317 316
326 324 322 322 322 322 322 322 322 321 321 321 320 320 320 317 317 317 317 319 318 318 318 318 318 317 317 316 315 316 315 316
326 324 323 322 322 321 321 321 320 319 321 320 319 317 317 317 317 316 317 320 318 318 317 318 317 316 316 316 316 316 316 316
324 324 323 323 322 322 321 321 320 318 321 320 320 319 317 316 319 316 314 319 321 321 319 320 319 318 315 315 318 321 322 319
324 323 323 323 323 322 322 321 320 317 319 321 320 319 321 319 318 321 318 314 320 323 323 321 322 323 320 319 318 320 322 322
325 324 323 323 322 323 322 321 320 318 318 317 318 320 322 321 318 319 322 322 319 322 323 324 323 324 323 323 321 322 322 323
326 324 323 323 322 322 322 322 321 320 318 317 316 317 321 321 320 319 322 322 322 322 323 323 324 323 323 322 322 322 321 322
326 325 322 323 323 322 322 322 322 321 319 317 317 317 320 320 321 319 319 323 322 324 323 323 323 324 322 321 322 322 321 321

GFSFLT2_925_thetae_063.txt.gz
Theta_e
342 339 337 336 336 337 336 336 334 335 335 333 334 332 333 331 331 330 328 328 327 326 325 322 323 323 320 322 322 322 321 319
338 339 338 335 334 336 335 334 333 329 329 330 329 333 332 330 330 330 329 326 324 325 324 321 323 320 320 322 321 321 319 318
336 335 338 337 333 334 332 330 330 328 324 324 332 332 330 329 327 328 327 323 321 320 320 320 321 320 321 320 319 319 319 317
334 336 337 334 332 332 331 329 327 324 324 323 332 330 330 329 328 327 325 320 321 321 321 319 319 320 320 320 320 319 319 316
333 335 335 332 332 331 330 328 326 323 330 329 330 330 330 329 327 325 321 322 322 320 319 314 319 320 320 321 320 319 317 317
333 333 333 332 332 331 330 327 328 326 326 330 328 331 330 328 325 322 320 318 318 319 317 312 319 320 322 322 319 319 318 317
331 332 331 330 330 329 326 327 327 328 329 328 324 328 330 328 323 319 315 315 314 312 311 314 319 321 321 321 320 319 318 317
330 331 331 329 329 328 328 328 328 328 326 323 324 328 328 327 321 316 315 312 309 316 316 314 318 319 321 322 321 319 318 316
327 328 329 328 328 328 327 328 327 326 327 327 324 325 326 326 320 316 316 312 312 319 320 317 318 321 321 322 320 320 318 316
327 329 329 328 327 328 328 326 327 327 327 325 323 324 321 325 322 317 319 315 315 320 321 320 319 321 322 322 321 320 319 316
326 326 328 327 327 327 327 327 326 327 326 323 321 322 322 322 325 318 322 320 319 319 320 319 320 321 321 321 321 320 320 319
325 325 325 326 327 326 326 326 325 323 322 320 320 320 321 325 325 320 323 322 322 321 320 319 320 320 320 320 321 321 321 320
325 323 324 324 325 324 325 325 323 323 321 320 323 320 324 325 324 323 323 324 323 321 319 318 319 320 319 319 319 320 320 320
325 323 322 321 321 323 323 323 323 322 321 320 323 322 321 322 322 322 321 323 321 319 319 319 319 319 318 318 313 315 318 318
325 323 322 321 322 322 322 322 321 321 321 320 321 320 319 320 318 321 320 320 319 319 319 319 318 318 318 316 312 313 313 315
325 324 321 321 322 322 321 321 321 320 320 320 320 320 320 317 318 318 318 318 318 318 318 317 317 317 317 316 315 317 316 317
324 323 322 322 321 321 321 320 320 320 320 320 319 320 320 319 318 316 316 317 317 319 316 315 317 317 317 315 315 316 319 318
324 324 323 323 322 321 321 320 319 318 320 320 320 318 318 317 315 316 315 315 319 322 318 318 318 319 320 316 315 316 319 320
323 323 323 323 322 322 321 320 319 317 319 320 320 321 320 317 316 318 319 317 315 320 322 322 320 320 321 322 320 319 320 321
323 322 323 323 322 322 321 321 319 318 317 319 319 319 320 320 318 316 318 320 321 319 317 322 322 322 322 322 322 322 322 320

GFSFLT2_925_thetae_066.txt.gz
Theta_e
341 340 340 339 337 337 338 338 336 334 334 335 337 335 334 333 331 332 332 330 330 328 327 326 324 322 322 325 323 323 322 320
338 338 337 338 338 338 338 334 329 334 332 330 333 332 333 332 330 329 330 328 328 326 324 323 320 322 323 322 321 320 320 319
334 336 338 336 335 335 335 334 333 332 330 329 329 331 331 331 329 328 328 327 327 324 322 322 320 322 322 321 320 318 319 318
335 335 337 337 334 334 334 332 332 332 328 326 325 328 330 332 330 328 325 325 325 324 322 320 321 321 320 320 318 317 317 317
333 335 335 335 334 332 331 330 330 329 327 326 324 327 329 332 330 328 322 321 323 322 320 320 320 319 319 319 318 317 316 317
333 334 333 334 333 332 330 329 328 327 326 324 323 331 330 330 328 325 320 320 320 320 320 319 319 320 320 319 319 318 316 317
332 331 332 332 331 330 329 327 325 324 326 324 326 330 329 328 327 323 319 320 320 320 318 318 319 319 321 320 319 317 316 317
331 331 332 331 331 330 329 326 327 327 328 327 329 329 329 326 324 320 319 317 317 318 314 317 319 320 321 320 319 317 317 317
330 331 330 331 330 328 326 326 327 328 329 329 328 328 328 325 322 317 314 317 315 313 311 318 321 318 321 319 319 317 317 317
329 329 330 329 329 328 328 328 327 328 328 328 326 328 328 326 320 316 314 311 309 311 314 319 319 318 321 320 319 318 317 317
327 328 330 328 328 327 328 327 328 326 326 324 325 328 328 325 318 314 311 308 315 316 315 316 318 320 321 320 319 318 317 316
327 328 329 328 327 327 326 326 327 326 325 325 326 327 327 325 318 315 311 311 318 319 319 318 318 321 321 320 320 319 318 316
326 326 328 328 327 327 326 326 325 325 325 324 325 324 324 325 320 316 315 314 316 320 320 320 320 320 321 318 319 319 319 319
324 325 325 326 325 325 325 326 325 324 324 323 323 323 322 323 324 319 321 318 319 318 320 318 319 320 319 318 315 316 319 319
324 324 325 324 324 324 323 323 322 323 322 321 322 322 321 324 324 323 322 323 321 322 320 318 318 319 319 318 313 315 313 318
324 323 322 322 321 322 322 321 321 321 321 321 321 321 322 323 324 323 321 323 323 322 319 318 318 318 317 319 318 316 313 313
323 323 322 321 322 321 321 322 321 321 321 321 321 322 320 321 320 322 320 322 321 320 319 318 318 318 317 317 315 317 318 316
323 322 322 321 321 322 321 321 321 320 320 319 320 320 319 318 318 320 319 319 319 319 318 318 317 316 316 317 316 315 317 318
322 322 322 321 321 321 321 320 320 319 320 320 320 319 318 317 317 318 320 318 317 319 317 317 314 314 317 317 316 316 315 315
322 322 322 322 322 321 321 320 319 319 319 319 319 319 319 320 317 318 317 317 318 318 320 317 314 314 317 318 317 319 316 317

GFSFLT2_925_thetae_069.txt.gz
Theta_e
341 340 341 342 340 340 337 335 335 335 333 328 336 335 335 336 336 334 333 332 331 331 329 328 327 327 326 325 325 324 323 321
338 341 339 338 337 337 337 336 332 332 333 333 331 332 332 332 333 333 333 332 331 330 328 328 325 324 325 324 324 323 322 320
338 339 338 338 338 336 338 336 329 325 329 331 332 326 330 331 331 332 331 329 330 328 327 324 323 324 324 323 322 321 320 320
336 337 336 336 336 335 337 334 325 330 331 330 328 329 330 327 329 331 329 329 327 325 321 320 323 324 322 321 320 319 319 319
334 334 336 336 334 334 334 333 328 331 331 328 326 326 328 327 328 330 328 328 325 322 319 322 323 322 320 319 318 318 318 318
333 334 335 335 334 333 333 333 332 330 327 326 327 325 324 327 328 328 327 327 323 322 319 322 322 321 320 319 317 317 317 317
333 333 333 332 333 332 331 331 331 331 328 326 326 327 327 329 329 327 325 326 324 321 320 320 320 320 319 318 317 316 317 317
332 331 330 331 332 331 329 328 327 327 326 325 325 327 329 329 328 327 323 324 323 320 318 319 320 320 319 319 318 316 317 317
331 330 329 330 331 330 329 328 326 325 325 325 326 328 328 328 327 326 321 320 320 320 317 318 320 320 319 319 318 317 316 317
331 330 330 329 330 329 328 328 327 327 327 325 324 328 327 327 326 324 320 320 319 320 316 317 319 320 319 319 318 317 316 317
329 330 329 328 329 329 327 327 327 327 326 328 327 328 327 326 324 321 319 319 319 318 314 317 318 320 320 319 318 317 317 317
328 332 328 327 329 328 327 326 326 325 327 328 328 327 327 325 321 318 317 317 317 315 312 317 317 320 319 319 318 318 317 317
327 327 326 327 328 327 326 326 325 325 327 327 327 327 327 325 320 316 316 315 313 312 315 317 317 320 319 317 317 317 317 316
327 328 325 327 327 326 326 325 325 325 326 326 324 325 327 324 322 316 313 311 314 315 316 317 318 320 319 317 315 317 317 317
326 327 327 326 327 326 326 325 324 324 324 324 324 324 326 324 323 318 315 312 316 317 318 318 318 319 319 318 314 318 314 318
325 324 325 326 326 325 325 325 324 324 323 323 323 324 325 325 324 320 318 315 317 318 319 319 319 318 318 319 319 318 315 314
323 324 324 324 325 325 324 323 322 322 323 322 322 322 322 322 322 323 318 319 317 318 318 319 319 319 318 317 318 316 316 314
322 322 323 323 323 322 322 321 320 321 321 321 321 322 322 321 321 323 322 321 321 319 320 319 318 318 319 319 317 317 317 317
321 321 321 322 322 321 321 321 320 320 321 321 321 321 321 321 321 320 321 321 321 322 320 319 317 318 319 318 318 316 316 317
321 321 321 321 321 321 321 321 321 319 320 320 321 321 320 320 319 319 321 321 321 321 321 320 319 318 318 318 318 316 315 316

GFSFLT2_925_thetae_072.txt.gz
Theta_e
340 339 339 340 341 337 334 333 334 336 335 336 334 331 327 330 332 333 334 335 333 332 333 332 330 329 328 327 326 325 325 324
340 340 346 342 337 336 338 335 334 334 335 333 331 330 329 327 332 333 334 333 331 332 331 330 329 328 327 326 325 324 323 322
338 341 343 340 338 336 335 335 335 333 331 328 327 328 328 331 330 332 333 332 330 330 329 328 327 326 325 324 324 322 321 320
336 339 341 338 338 336 335 335 333 332 330 328 329 328 328 327 327 330 330 330 330 329 327 325 325 325 324 323 322 321 320 319
336 336 336 336 336 336 336 335 331 328 326 328 325 327 329 328 324 328 329 330 329 328 326 325 324 324 323 322 321 320 319 318
334 334 335 335 335 334 334 334 330 328 328 327 329 327 328 327 326 327 327 329 327 322 322 322 323 323 322 321 319 319 318 318
333 333 335 333 333 333 333 332 329 329 330 330 328 328 328 327 323 328 327 328 323 320 321 322 323 322 320 319 318 317 318 317
332 334 335 333 332 331 333 332 329 328 328 328 327 327 328 326 326 327 327 327 322 320 321 322 322 320 319 318 317 316 317 317
332 333 334 333 330 329 331 331 330 328 327 327 326 326 327 327 327 327 327 326 322 319 320 321 321 320 318 317 317 316 317 317
331 332 332 332 329 328 329 328 327 327 327 327 326 327 327 328 327 326 325 327 322 319 320 320 319 319 318 318 318 316 317 317
331 333 332 332 328 329 328 328 327 326 325 326 325 327 328 328 326 325 324 325 322 318 318 319 319 319 318 318 318 317 317 317
331 328 331 329 326 329 328 326 327 327 327 326 325 328 327 328 326 325 323 322 321 317 317 319 320 320 318 318 317 317 317 317
329 327 327 326 327 326 326 326 326 326 326 327 326 326 327 327 325 324 322 320 319 317 315 317 318 319 318 316 316 317 317 317
328 325 326 326 326 325 326 325 324 324 326 327 326 326 326 326 325 322 320 319 318 318 315 316 318 319 318 316 314 316 317 317
326 324 325 326 326 324 324 325 325 324 324 325 327 326 326 326 324 320 318 317 316 317 315 316 318 319 319 318 315 318 316 317
325 323 323 325 326 324 324 324 324 324 324 324 324 325 326 326 324 322 316 315 314 314 313 317 317 318 318 319 319 318 317 315
323 325 323 324 324 326 326 325 323 323 323 324 324 323 325 325 325 324 317 313 312 312 314 317 317 318 318 318 317 317 317 315
323 323 321 321 322 325 325 324 323 323 323 323 323 323 323 325 324 322 319 316 312 314 316 317 318 318 319 319 318 316 315 315
322 321 320 321 323 324 323 323 322 321 321 321 322 322 321 322 324 323 323 321 318 315 317 318 319 319 318 319 319 318 317 315
322 321 320 322 322 322 321 321 321 321 320 321 321 321 321 321 321 321 321 321 321 319 319 317 319 319 318 317 317 318 318 317

GFSFLT2_925_thetae_075.txt.gz
Theta_e
338 339 343 340 340 339 336 334 333 335 336 336 337 335 336 335 333 332 333 336 336 336 335 334 333 332 330 329 328 327 327 327
339 340 344 341 340 340 337 335 333 333 334 334 334 333 333 331 329 330 332 334 335 334 334 333 332 330 328 327 327 326 325 325
339 340 342 339 340 339 336 335 334 333 333 333 331 330 327 325 328 329 331 332 334 334 333 331 330 328 327 326 325 325 325 324
337 337 338 339 340 338 336 335 334 333 333 332 330 328 327 325 324 328 330 331 332 332 331 330 328 327 326 325 324 323 323 323
335 336 341 340 338 337 336 334 334 334 333 331 329 327 326 326 329 328 329 329 331 330 329 328 327 326 324 323 322 322 322 321
335 335 336 337 336 337 335 334 334 333 332 329 328 329 328 328 327 328 328 329 330 330 329 327 326 324 323 322 322 321 320 320
334 334 333 333 335 336 333 332 333 332 331 329 328 329 328 327 326 328 328 328 329 328 326 325 324 324 322 321 321 320 320 320
333 334 333 331 331 335 336 333 332 331 328 328 327 327 329 327 325 327 328 328 327 325 325 324 323 322 321 321 320 320 319 320
332 332 331 329 330 333 333 331 331 330 328 327 327 327 328 327 326 327 327 327 325 323 323 322 322 321 320 320 319 319 319 320
329 332 329 329 329 332 329 331 331 328 329 328 328 328 328 327 326 326 326 326 323 321 321 321 321 321 320 319 319 319 319 319
329 329 329 328 327 330 329 330 329 328 326 326 327 327 327 327 326 325 326 323 321 320 321 321 321 320 320 319 319 318 319 319
328 328 328 327 326 326 328 327 327 327 326 327 327 327 327 327 326 325 326 321 319 319 320 320 321 320 319 319 319 318 318 318
328 327 327 326 327 325 327 327 327 327 327 326 325 325 327 327 326 326 325 322 320 319 319 320 320 320 319 318 318 318 318 318
328 328 327 327 326 326 325 325 325 326 326 326 327 326 325 326 325 325 324 322 320 318 318 320 320 319 320 320 321 319 318 318
328 327 327 326 325 325 325 324 324 324 325 326 325 325 324 326 325 324 322 320 320 318 317 318 319 319 320 321 322 324 319 318
326 325 326 325 324 325 325 324 324 324 324 326 325 325 325 326 325 324 322 319 319 318 317 317 318 319 319 318 321 320 322 321
325 325 325 324 324 325 324 324 325 323 324 324 325 325 326 326 325 323 321 318 317 317 316 316 318 320 320 319 318 319 320 322
322 324 324 324 323 325 325 324 323 323 323 323 324 324 324 325 325 324 319 316 317 317 317 317 317 319 319 320 319 319 319 318
322 323 322 323 323 324 325 324 324 323 323 323 323 323 323 324 324 324 322 320 315 314 314 315 316 317 319 319 319 319 319 318
323 322 321 320 321 322 324 324 323 323 322 322 322 322 322 323 323 324 322 319 319 315 313 312 313 317 317 318 319 319 319 318

GFSFLT2_925_thetae_078.txt.gz
Theta_e
344 342 341 341 340 338 337 337 336 334 336 335 339 338 338 336 335 335 334 334 337 337 337 336 335 334 334 333 331 331 331 331
342 344 343 343 342 339 338 336 335 333 334 334 334 334 334 334 334 334 332 334 337 337 336 335 334 334 333 331 330 329 330 329
344 344 344 341 344 343 339 337 335 334 334 335 335 333 334 328 328 331 329 331 333 335 335 334 333 331 330 328 328 328 327 327
342 343 341 341 341 342 341 339 336 336 336 334 336 334 333 333 330 329 327 327 331 331 333 333 331 330 328 327 327 327 326 325
341 342 341 340 339 341 340 339 338 337 337 334 333 333 332 330 328 328 329 328 329 331 331 331 330 329 328 327 326 326 325 324
339 338 338 338 338 340 339 339 338 337 337 335 332 332 330 329 325 328 329 329 329 331 331 330 329 328 327 326 326 324 323 322
338 337 336 338 336 336 337 338 337 337 337 336 333 331 331 330 330 329 327 329 328 331 330 329 329 328 327 326 325 323 322 321
338 336 337 336 335 333 333 336 335 334 334 334 335 332 331 329 329 328 329 328 328 329 329 328 327 327 326 325 324 321 321 320
337 335 334 335 334 331 332 333 333 332 333 332 331 329 329 329 328 328 328 328 327 328 327 327 326 326 325 324 322 321 320 320
336 333 334 334 332 329 330 331 334 331 330 330 329 329 329 328 327 327 328 328 327 326 327 326 325 325 324 323 322 321 319 319
335 333 333 333 331 329 330 332 330 330 330 329 328 328 329 328 327 327 327 327 327 326 326 326 325 324 324 323 322 322 320 319
334 332 332 332 331 328 328 329 329 329 329 328 328 328 328 328 328 326 325 326 324 325 326 325 325 324 323 323 323 322 321 320
334 332 332 330 329 327 327 328 328 327 327 327 327 327 328 328 327 326 324 325 324 324 326 325 324 324 322 322 322 322 322 321
333 332 331 330 329 327 327 327 327 327 327 326 327 326 326 327 326 324 324 322 322 323 325 325 324 323 323 322 323 322 321 322
333 332 331 330 330 329 329 327 326 326 326 326 325 328 326 326 326 324 324 323 321 323 324 324 324 323 323 322 324 324 322 322
333 332 331 330 329 328 328 327 326 326 326 325 325 325 326 325 325 325 324 324 322 322 324 324 323 323 323 322 321 320 324 325
333 332 330 330 328 327 327 327 326 326 326 325 325 324 323 322 324 324 324 323 324 323 323 323 323 322 323 323 323 323 322 322
332 331 329 329 328 327 327 326 325 327 325 326 324 324 323 323 324 324 323 322 322 322 321 321 322 322 322 322 322 322 322 322
329 330 328 328 327 326 326 326 326 326 326 325 324 324 323 323 324 323 322 320 320 320 320 320 320 321 322 322 322 322 321 321
327 329 327 327 327 326 327 326 325 325 325 326 326 324 324 324 324 323 321 319 319 318 319 319 319 320 321 322 322 322 322 321

GFSFLT2_925_thetae_081.txt.gz
Theta_e
347 343 341 339 339 338 337 338 340 342 342 338 339 338 337 339 336 336 336 335 336 337 338 338 336 335 335 335 334 334 334 333
347 345 345 344 343 339 338 337 338 337 337 335 336 337 337 337 335 334 334 333 334 335 335 337 335 335 335 334 333 332 332 331
345 345 345 344 343 342 339 338 336 336 336 336 335 337 336 334 329 332 333 332 332 333 331 335 334 334 334 333 332 328 329 329
347 345 344 344 341 343 343 342 339 338 336 337 337 337 336 331 331 326 330 331 330 331 330 331 333 332 331 331 330 329 327 327
343 345 343 343 340 341 343 341 340 338 338 338 337 337 334 330 329 327 331 329 329 330 329 330 332 331 331 329 329 327 326 327
342 344 342 341 339 343 341 339 338 339 339 338 335 336 335 332 333 332 330 328 327 328 328 332 331 330 330 328 327 325 325 326
341 342 340 340 339 339 341 339 339 339 338 337 335 335 334 332 332 332 330 329 326 329 329 332 331 329 328 327 325 325 324 325
340 341 339 338 338 337 339 339 339 339 338 337 335 334 333 332 330 331 331 330 327 328 329 330 330 328 327 325 324 324 323 322
340 341 339 338 337 337 337 336 336 335 336 336 335 334 333 332 332 331 329 328 327 327 329 329 329 328 326 325 324 322 321 321
340 340 338 338 336 335 334 334 335 334 334 334 334 333 333 331 330 330 329 327 328 328 328 328 327 326 325 324 323 321 320 321
340 339 337 337 336 333 331 331 332 333 333 331 332 332 331 330 329 329 327 328 328 327 327 327 326 325 324 323 322 321 320 320
339 338 338 336 334 332 332 330 329 330 330 332 331 330 329 330 328 328 327 327 327 326 326 326 326 325 324 323 322 322 320 319
339 338 337 335 333 332 331 331 331 330 329 329 329 329 329 330 329 327 326 326 326 326 326 325 325 324 323 322 322 322 322 320
339 337 336 334 332 331 330 331 331 330 330 328 328 327 328 328 328 327 326 325 326 326 325 325 325 323 323 323 324 323 323 321
338 337 335 333 332 331 330 328 330 329 330 330 328 329 329 328 327 326 325 325 324 324 325 325 324 324 323 323 324 324 322 323
337 336 335 333 332 330 330 330 328 329 329 329 328 329 329 328 325 325 325 324 322 322 325 325 324 325 324 323 321 320 324 325
336 336 335 333 332 331 330 328 329 329 328 328 327 326 325 324 326 324 324 323 323 322 324 324 324 324 324 324 323 323 323 324
336 335 334 333 333 331 329 328 328 329 328 328 326 325 324 324 325 324 324 323 323 322 324 324 324 324 324 324 323 323 323 322
335 335 333 333 332 331 329 328 329 327 328 327 325 324 323 322 323 323 323 324 324 323 323 323 324 324 324 323 323 323 322 322
335 335 332 333 332 330 328 328 328 329 328 327 326 325 324 323 323 323 322 323 324 324 324 324 324 324 323 323 323 322 322 323

GFSFLT2_925_thetae_084.txt.gz
Theta_e
347 340 338 338 338 338 338 339 340 343 343 344 343 341 339 338 337 336 337 337 336 335 337 337 336 336 335 335 335 335 334 335
348 343 339 339 338 338 338 337 339 340 342 342 340 338 339 338 336 327 331 334 334 334 336 337 336 335 335 334 334 333 333 333
348 346 346 345 344 341 337 337 338 338 338 338 338 337 337 337 332 329 331 329 334 333 333 332 334 333 332 333 333 332 333 332
347 344 346 345 344 342 341 339 337 337 337 337 337 336 336 337 334 331 329 331 331 332 332 330 332 332 332 331 331 331 330 331
348 344 346 345 342 343 341 342 341 339 338 337 337 337 336 334 331 329 327 328 331 330 327 329 331 331 331 330 330 329 329 329
348 345 344 344 341 341 341 343 341 339 338 337 337 337 335 332 331 326 327 331 332 331 331 329 329 332 331 331 330 327 328 326
344 346 344 344 342 341 342 341 339 338 338 337 337 337 335 333 331 329 329 331 330 331 330 328 329 331 330 330 328 326 327 325
343 345 344 342 341 340 340 340 340 339 337 337 336 335 335 334 334 332 332 330 330 329 327 328 329 329 329 328 325 325 325 324
342 343 342 341 339 339 338 337 340 339 338 336 336 335 334 332 332 333 331 331 329 327 327 327 329 329 328 326 325 324 323 324
343 343 341 340 338 337 336 336 338 337 335 335 335 334 333 332 331 331 331 331 329 327 327 327 328 328 327 325 324 322 321 323
343 342 340 340 338 336 335 334 336 334 333 334 334 333 332 332 331 331 330 329 329 328 327 327 328 327 325 324 322 321 321 322
343 342 340 339 338 335 331 331 332 333 333 333 332 332 332 332 331 330 330 328 327 327 328 328 327 326 324 324 322 321 320 320
343 341 339 339 335 332 332 330 330 330 330 330 331 331 331 331 330 329 328 328 327 328 328 327 326 325 324 323 323 321 319 320
343 340 339 338 335 332 333 331 331 329 329 328 329 330 330 330 329 328 327 326 327 327 326 326 326 325 323 323 322 322 321 321
342 340 339 337 334 333 331 331 330 329 329 329 329 328 328 329 329 328 327 326 326 326 325 325 326 325 323 322 323 323 322 321
340 340 338 337 334 332 331 330 330 329 329 329 329 330 329 329 327 327 327 326 326 326 325 325 325 324 323 322 321 322 321 322
340 339 337 336 334 332 331 330 329 329 330 329 329 328 329 329 328 326 326 326 325 325 325 325 324 324 323 323 321 323 321 322
339 338 336 335 334 332 331 330 329 328 329 328 327 326 325 326 326 326 324 325 325 325 323 323 324 324 324 323 324 324 324 323
339 338 336 335 334 334 331 331 329 328 328 328 325 325 323 322 323 325 324 324 324 324 323 324 323 323 323 324 324 323 323 323
338 337 336 335 335 333 331 329 327 328 329 328 326 325 325 322 323 324 323 324 324 323 320 323 322 323 323 324 323 323 323 322

GFSFLT2_925_thetae_090.txt.gz
Theta_e
331 332 331 332 334 336 336 337 338 339 339 340 340 340 339 339 337 338 338 337 336 336 334 335 333 335 335 336 336 336 335 335
337 333 332 335 336 336 336 337 337 339 341 341 341 342 342 340 338 338 337 336 336 335 331 334 333 333 336 336 336 335 334 334
341 338 332 335 336 336 336 336 338 338 341 341 342 343 342 341 339 338 336 335 335 333 329 329 333 332 334 335 335 334 333 334
342 336 331 334 336 337 336 336 338 337 340 342 342 341 339 339 338 338 336 333 329 329 329 328 331 330 332 334 333 333 333 333
344 341 332 332 335 336 336 336 336 336 339 340 339 339 337 338 338 337 335 327 326 330 331 332 330 330 331 332 332 332 332 332
344 343 339 334 336 340 336 335 335 336 336 337 336 337 337 336 336 333 329 327 328 328 328 329 329 330 330 331 331 331 331 331
345 345 342 339 340 342 339 338 336 335 335 335 335 335 335 334 335 332 329 329 330 328 329 328 327 328 329 330 330 330 331 331
345 345 344 342 340 343 341 338 339 337 336 336 336 335 335 334 334 333 331 330 330 329 328 326 327 329 329 330 329 328 331 331
345 345 344 342 341 343 342 339 342 340 338 337 337 336 335 334 333 332 331 330 330 331 327 326 327 329 329 329 328 328 330 329
338 343 344 342 340 342 340 340 341 342 339 338 337 336 335 335 333 331 329 328 330 331 330 329 328 328 329 328 327 328 328 326
336 343 344 343 340 341 340 340 340 341 339 338 337 336 335 335 333 332 329 328 333 333 329 328 329 329 328 328 326 326 326 324
331 340 343 341 339 340 339 340 339 338 338 337 336 335 335 334 333 332 331 329 329 331 329 329 328 328 328 327 323 324 324 323
334 341 341 340 338 337 336 337 338 337 336 336 335 334 334 334 332 333 332 331 329 330 329 328 328 327 328 326 320 322 323 322
339 340 340 339 338 336 333 334 332 331 335 334 334 334 332 333 333 332 331 330 327 329 328 327 327 327 326 323 321 319 320 321
339 339 338 337 336 334 333 331 331 331 332 333 333 332 333 332 332 331 329 326 328 327 327 327 327 326 325 322 321 322 320 320
338 338 337 336 335 333 332 330 328 329 329 331 331 331 331 331 331 329 329 328 327 326 326 327 326 325 323 322 321 320 320 320
338 338 336 333 334 334 331 328 327 327 328 330 327 326 328 329 330 330 329 328 326 325 326 326 326 324 323 322 321 320 320 319
338 337 334 333 333 332 331 328 328 328 328 327 327 327 328 328 330 329 327 327 327 326 326 326 326 325 323 321 321 320 320 319
337 336 333 333 332 331 330 330 329 328 327 327 326 328 328 328 328 328 327 327 326 326 326 326 325 324 323 321 321 320 320 320
336 335 333 331 331 329 330 330 329 328 327 327 327 327 328 328 327 327 327 326 326 326 326 326 325 324 323 322 321 321 320 320

GFSFLT2_925_thetae_093.txt.gz
Theta_e
335 335 336 337 339 339 338 338 339 339 340 339 338 337 337 337 338 338 338 337 337 338 337 334 335 335 335 334 336 336 335 335
336 333 332 333 336 338 337 337 338 339 340 340 340 339 338 338 338 338 338 336 337 337 335 333 333 333 334 331 333 336 335 335
334 334 334 333 334 336 337 337 338 338 339 340 341 341 340 339 338 337 337 336 336 336 335 332 331 331 330 328 332 335 334 334
333 333 334 334 333 334 336 336 337 338 339 341 341 342 342 341 339 338 337 336 335 335 333 333 330 329 330 330 331 334 334 333
339 337 333 333 334 335 335 337 337 337 338 341 341 342 342 341 340 338 337 336 335 334 331 330 328 329 330 329 330 332 333 332
341 339 334 330 331 332 334 335 336 336 338 340 342 342 339 338 338 338 335 334 331 328 327 329 329 329 330 329 330 331 332 332
342 339 335 331 332 332 332 332 333 334 336 340 340 339 338 337 338 337 335 334 328 329 330 331 330 330 329 329 330 330 331 331
343 342 339 334 332 331 332 332 331 333 335 337 336 335 336 336 336 336 333 331 327 329 327 330 329 328 329 329 329 330 330 331
342 343 342 339 335 336 336 335 335 334 335 335 335 334 334 334 333 335 334 332 331 328 328 329 328 327 327 328 329 329 330 330
334 343 343 343 340 339 339 339 337 336 335 335 335 334 334 334 333 332 332 331 331 328 329 328 329 328 328 329 328 328 329 329
324 341 343 344 343 341 340 341 338 338 338 336 336 336 336 335 333 332 334 330 329 328 328 326 328 328 329 328 328 328 328 329
317 333 341 342 342 340 341 341 340 341 341 339 337 337 336 335 334 332 331 331 327 327 329 328 328 327 328 327 327 327 327 327
313 336 340 341 339 338 337 338 339 340 341 341 338 337 335 335 334 332 331 329 327 328 329 329 328 328 327 325 325 324 325 326
314 333 337 340 339 338 337 338 337 338 339 339 337 336 335 335 334 332 333 329 328 327 328 326 327 328 327 322 321 320 322 324
320 331 336 338 338 336 335 336 335 334 336 336 334 335 334 334 333 330 331 328 329 329 327 326 327 327 327 324 322 323 321 321
323 332 336 338 337 335 333 333 333 333 334 334 333 334 334 333 332 332 330 330 328 328 326 326 326 326 325 325 321 320 322 321
326 335 336 337 335 334 332 332 331 330 331 330 333 333 332 332 332 331 331 329 328 327 326 326 326 325 325 323 321 320 320 320
330 336 336 335 333 332 332 330 328 328 328 328 330 331 331 331 330 329 329 328 328 326 326 326 325 326 324 323 321 320 320 319
322 337 336 333 332 330 331 329 328 328 326 326 327 326 327 328 327 328 327 328 327 327 326 325 325 326 324 322 321 320 319 319
316 336 334 332 331 331 329 329 327 327 326 326 326 325 325 326 328 328 328 328 327 326 326 326 325 326 323 321 320 320 320 320

GFSFLT2_925_thetae_096.txt.gz
Theta_e
341 341 341 340 340 340 340 340 339 338 337 337 336 337 337 337 338 339 341 339 338 338 337 337 336 335 334 335 336 336 336 336
343 343 341 340 339 338 338 338 339 339 339 338 337 337 337 337 338 339 338 337 337 338 337 336 335 335 334 335 335 334 335 334
343 345 343 341 340 338 338 338 337 338 339 339 339 338 338 338 338 339 339 337 337 337 337 334 333 332 331 332 329 329 331 332
340 342 343 341 338 339 338 338 337 337 338 339 339 340 339 338 338 338 338 337 336 337 336 333 332 331 334 331 327 327 330 332
337 337 335 335 336 338 338 338 337 337 337 338 339 340 341 340 339 339 339 337 336 336 335 333 331 332 331 328 327 326 329 331
336 335 336 334 334 335 337 337 336 336 336 338 340 341 341 342 341 340 338 337 335 335 334 333 332 330 329 328 328 326 329 330
341 339 337 336 335 335 335 335 334 336 337 337 338 340 340 341 340 339 338 336 335 334 333 331 331 329 329 330 328 326 328 330
338 341 340 338 336 335 334 335 334 335 336 337 338 339 341 343 336 336 335 334 333 331 329 329 328 328 329 330 328 326 328 330
319 336 341 340 336 334 333 332 333 333 335 337 338 338 338 339 335 333 334 332 332 329 329 330 331 330 330 329 326 326 328 330
312 320 336 341 339 334 333 332 331 332 333 335 338 337 335 336 336 332 331 329 329 328 328 330 330 330 328 328 328 328 328 328
311 315 331 337 341 338 334 333 333 333 333 334 335 336 334 334 334 333 329 328 327 328 326 329 328 328 328 328 325 326 328 328
310 312 327 336 340 339 337 336 335 335 334 334 334 336 334 334 333 332 329 328 328 329 327 328 328 328 327 327 326 326 327 328
308 310 322 338 339 338 337 336 336 336 336 335 335 335 334 335 334 332 328 328 328 328 327 327 327 327 327 325 324 326 327 327
315 308 317 335 338 338 338 337 337 337 336 336 337 336 335 336 334 332 329 328 328 327 326 328 327 327 327 324 322 321 323 325
312 316 321 331 338 338 337 336 335 334 333 336 335 337 337 336 334 332 330 328 327 328 328 328 328 327 327 324 321 324 321 321
310 314 318 334 337 337 335 336 334 334 333 332 332 333 336 336 334 334 333 329 328 329 328 327 327 326 325 325 323 321 323 321
310 314 321 333 337 336 335 335 334 333 332 321 321 331 334 334 334 333 332 329 327 329 328 327 326 325 326 324 321 321 321 321
307 313 325 335 336 335 333 333 332 332 332 329 329 331 332 333 333 332 330 330 328 329 328 327 326 325 325 325 324 322 320 320
305 309 319 335 334 333 332 332 330 330 331 331 329 329 330 331 330 330 330 331 329 328 327 326 326 326 325 325 323 323 322 321
303 306 312 334 333 333 331 331 328 329 328 327 327 328 329 328 329 328 330 327 326 327 326 326 325 326 325 324 323 322 320 321

GFSFLT2_925_thetae_099.txt.gz
Theta_e
342 341 341 340 340 340 339 338 337 337 336 335 336 338 339 340 340 340 339 340 341 342 341 338 338 338 337 336 336 336 337 337
343 343 342 342 341 341 340 339 338 337 337 336 336 336 337 338 339 339 339 342 341 339 339 338 337 336 335 334 334 334 336 336
343 344 346 343 342 341 341 340 339 338 337 337 337 337 337 338 339 339 338 339 338 337 337 337 336 335 334 335 334 335 335 334
342 340 340 343 345 341 341 340 340 340 339 339 339 338 339 340 339 338 339 337 337 336 336 336 335 335 335 333 334 334 331 333
339 341 340 339 340 343 343 341 342 340 339 340 340 339 339 338 338 340 339 338 337 336 337 336 335 335 335 334 332 328 329 329
334 334 338 339 339 338 343 343 341 343 342 339 339 339 340 339 338 339 339 337 338 336 336 335 334 334 334 334 331 327 326 324
339 335 333 333 339 338 338 341 340 341 341 340 338 340 343 339 339 339 338 337 337 336 335 334 334 334 334 333 330 327 326 325
327 336 336 334 331 333 338 339 337 342 342 338 339 343 342 338 338 338 339 338 337 336 334 333 332 333 332 331 330 328 327 325
309 327 330 339 336 334 334 333 335 336 340 340 339 342 338 337 335 336 336 337 335 334 333 333 331 331 331 329 330 329 327 325
315 310 328 336 338 338 336 334 332 334 337 340 338 339 336 334 334 333 333 334 333 332 331 329 329 329 329 329 328 328 325 326
315 314 310 328 332 338 337 335 333 332 333 336 337 338 337 334 334 332 331 332 332 330 329 329 329 329 328 330 328 325 325 325
316 316 309 316 332 335 337 336 334 333 332 333 335 335 336 334 334 332 331 330 330 328 328 328 328 329 328 328 328 326 325 327
315 315 316 313 332 335 334 334 335 334 333 332 334 333 335 334 334 331 331 330 330 328 327 326 328 328 328 326 326 326 324 323
312 313 314 314 325 333 334 334 335 335 334 333 333 332 333 335 334 332 331 330 329 328 328 328 328 328 326 324 325 323 325 326
310 311 312 314 317 332 335 335 336 334 335 334 333 333 333 334 334 331 331 330 328 328 328 327 327 327 327 325 324 327 322 323
306 308 311 314 318 329 334 333 333 334 335 334 334 333 332 331 332 332 331 329 328 328 328 327 328 327 327 326 324 324 326 324
304 305 308 313 320 326 335 334 334 334 335 334 333 332 333 327 321 329 331 330 328 328 328 327 328 327 327 324 322 322 323 324
302 304 306 310 321 327 334 334 334 334 333 333 334 331 325 322 323 329 331 329 328 328 328 328 327 327 327 325 325 323 324 325
300 302 304 308 316 331 335 333 333 334 333 332 330 327 323 321 323 331 331 329 327 327 327 327 327 326 326 326 325 325 325 325
299 301 303 306 317 333 334 333 332 333 333 328 328 327 327 327 330 331 331 329 329 326 326 327 327 326 326 325 325 324 324 323

GFSFLT2_925_thetae_105.txt.gz
Theta_e
351 352 345 341 339 338 337 338 338 338 340 342 344 344 343 341 339 338 338 339 340 340 342 341 339 339 339 338 338 337 339 338
352 351 349 347 345 338 338 337 337 337 337 339 340 342 342 342 341 340 339 340 340 340 340 341 338 338 338 338 337 336 337 340
349 350 350 349 348 346 339 338 337 337 337 338 339 345 346 345 344 344 340 340 339 339 339 341 340 338 338 338 337 338 338 338
349 347 347 347 349 349 346 344 343 342 342 343 343 344 345 345 345 344 344 341 338 338 340 340 340 340 339 338 337 338 338 338
347 348 348 348 347 348 348 346 346 345 345 345 344 344 344 344 343 344 344 343 341 341 342 341 340 339 340 340 338 338 337 338
343 346 347 348 348 347 347 347 347 345 345 345 345 344 342 342 340 342 342 343 342 341 341 340 339 339 339 340 339 337 338 337
321 334 342 346 347 346 346 345 345 345 345 346 344 342 342 341 340 340 342 340 342 341 340 339 338 338 338 338 339 337 338 335
320 319 326 338 342 345 344 344 343 344 343 343 343 344 344 342 340 340 339 340 342 340 341 340 340 339 338 337 338 337 337 336
323 323 320 323 336 340 341 342 341 340 341 342 341 342 343 341 341 341 339 339 340 340 341 340 340 339 338 337 338 337 336 335
323 324 324 325 323 329 337 338 341 341 339 340 341 342 341 342 340 340 340 338 341 340 340 340 339 338 337 337 336 336 335 335
322 322 323 325 325 324 325 334 338 339 340 340 341 340 340 341 340 339 339 338 340 339 339 339 339 338 337 336 335 334 334 334
320 320 321 322 323 324 323 324 334 337 338 340 341 341 340 341 340 339 338 337 338 337 336 336 336 336 335 334 334 333 334 332
319 319 319 320 320 322 322 321 326 333 336 337 340 341 341 341 340 338 337 336 338 336 334 335 334 334 334 332 332 332 332 332
317 316 317 317 318 319 321 322 322 328 333 335 337 340 341 339 339 338 337 336 337 336 334 333 333 332 332 329 330 328 330 331
314 313 313 315 316 316 318 321 322 324 333 334 335 338 339 339 338 338 336 335 335 334 333 332 331 331 330 330 330 332 328 328
312 311 311 311 313 314 315 319 322 322 327 333 334 335 338 339 338 336 335 334 334 334 333 332 332 331 331 331 331 331 332 329
310 309 308 309 309 310 310 313 318 323 324 332 334 336 337 337 337 336 334 332 333 334 333 332 332 331 330 329 332 331 329 331
308 307 306 306 304 304 306 309 313 320 325 330 334 337 336 337 335 335 333 333 332 333 326 333 333 332 331 331 331 330 330 330
306 304 303 303 301 302 304 307 310 316 323 328 335 336 335 334 335 333 333 333 327 320 318 331 333 333 332 331 330 331 329 329
303 302 301 300 299 299 301 305 309 315 322 328 332 336 335 333 333 332 332 332 327 328 332 333 333 333 331 331 330 330 329 329

GFSFLT2_925_thetae_108.txt.gz
Theta_e
352 350 347 345 341 339 339 340 342 343 344 343 343 343 342 341 340 337 336 336 342 341 339 340 340 339 339 339 338 338 336 340
353 353 350 344 341 339 339 339 340 340 342 344 344 344 344 343 341 338 336 338 341 339 339 339 339 339 339 339 338 337 336 335
348 351 350 347 346 341 339 339 339 339 339 340 341 343 344 344 342 340 339 340 340 339 339 339 340 339 338 338 338 337 336 335
348 347 349 349 349 348 340 338 338 338 338 339 340 342 347 345 344 342 343 341 340 340 339 339 340 340 338 338 338 337 336 338
350 347 346 346 347 350 346 343 341 340 341 342 340 342 345 346 346 345 343 344 341 341 340 340 340 340 340 340 338 337 337 338
347 348 347 345 345 347 349 348 346 345 344 344 345 343 344 346 343 346 343 343 343 342 340 340 340 340 338 339 339 338 338 337
321 328 341 346 345 346 346 346 347 346 347 345 344 346 345 344 345 343 344 342 343 341 342 342 341 339 339 338 338 338 338 337
321 323 323 324 342 342 343 344 345 346 346 346 347 346 344 343 343 341 344 340 341 340 340 341 341 339 337 338 337 337 337 335
324 324 324 325 324 329 341 342 342 343 345 345 344 345 345 344 343 343 339 343 339 339 340 341 340 340 339 338 337 337 337 336
323 324 325 325 326 325 325 331 341 342 342 344 345 342 341 343 343 341 342 339 341 341 339 341 340 339 338 339 338 337 337 335
321 321 322 323 324 325 325 324 327 339 342 341 343 343 340 342 343 343 339 340 340 342 341 341 341 339 338 336 336 336 335 335
320 320 320 321 321 322 324 324 322 326 337 342 341 342 341 339 343 343 341 339 339 342 341 340 340 339 338 336 336 335 334 333
318 317 317 317 319 320 321 322 324 324 326 336 340 341 341 341 342 342 341 341 339 341 339 339 338 337 336 335 334 334 333 333
315 315 314 314 316 317 318 318 319 321 324 326 334 337 339 340 341 342 340 339 338 339 337 336 336 334 334 330 329 329 330 332
314 313 312 312 313 314 315 316 317 321 321 321 324 336 336 338 341 341 340 335 331 337 336 335 334 335 332 329 328 329 327 329
312 311 310 310 310 310 310 312 313 315 317 322 324 334 336 337 338 340 338 335 336 333 335 334 333 333 332 331 330 330 328 328
310 308 307 306 307 306 305 305 308 311 314 318 322 325 336 336 338 338 338 336 331 335 335 334 332 331 331 330 330 331 331 327
306 305 304 304 304 302 301 302 303 306 309 313 317 324 328 335 335 338 337 336 335 334 327 332 332 332 331 331 330 331 331 329
304 303 303 303 302 300 299 300 301 303 306 309 313 319 327 329 332 337 338 336 333 332 330 332 332 332 332 331 331 330 331 330
303 301 301 300 299 298 297 298 300 303 306 309 312 317 324 328 328 333 335 335 333 333 332 332 331 331 325 331 331 330 331 330

GFSFLT2_925_thetae_111.txt.gz
Theta_e
350 348 347 346 342 341 339 340 341 342 342 342 341 338 337 338 338 338 336 337 339 344 343 339 338 337 336 337 338 337 337 335
352 352 351 348 344 341 339 339 341 342 343 342 343 342 341 340 340 339 337 336 336 342 342 339 340 338 336 337 338 338 337 336
351 352 349 348 345 341 339 339 340 341 343 344 344 344 343 343 342 340 338 336 336 340 340 339 339 340 337 337 338 338 337 336
346 349 349 347 344 342 339 338 338 339 340 341 343 343 343 343 342 341 339 338 338 340 340 339 339 339 339 337 337 337 337 336
347 346 348 345 348 347 344 338 338 338 338 338 338 340 340 342 341 342 341 340 340 340 340 340 339 339 339 338 337 336 336 336
348 346 346 346 344 348 348 343 338 338 338 338 338 338 342 345 345 343 342 342 342 340 340 339 338 338 339 338 339 338 337 336
332 341 340 343 344 345 348 347 345 342 339 338 340 341 339 344 346 346 345 343 342 342 341 340 338 337 338 338 339 338 338 337
324 324 323 323 334 342 343 344 346 347 346 344 343 343 343 342 344 345 345 345 343 341 341 340 340 339 339 338 339 338 337 338
323 324 324 325 325 326 331 340 342 342 343 344 345 344 346 344 343 344 343 343 343 341 340 340 342 341 340 339 338 338 337 337
321 321 322 323 324 324 324 324 327 334 341 340 341 342 344 346 344 344 343 342 343 341 340 340 341 341 340 339 338 337 337 336
319 320 319 320 320 321 321 322 323 323 327 337 341 340 342 342 344 344 343 342 342 341 339 339 341 340 340 339 338 337 336 336
317 316 316 316 317 318 319 320 321 323 325 324 329 340 340 341 341 342 342 342 341 341 340 339 340 340 339 338 336 336 336 336
314 314 313 313 313 313 314 316 317 318 320 322 324 329 337 340 342 340 338 340 341 340 341 341 340 340 338 337 335 336 335 334
312 311 311 310 310 310 311 311 314 315 317 318 319 321 323 332 339 340 341 339 340 339 338 339 338 339 335 332 331 330 334 333
309 308 308 307 307 307 307 307 309 310 312 314 318 319 321 322 331 338 340 340 338 338 338 335 335 336 334 330 327 327 323 329
307 306 305 304 304 304 303 303 304 305 306 308 310 314 315 318 323 334 336 339 337 336 335 328 322 328 332 332 328 327 323 327
304 303 303 302 302 301 300 300 300 302 303 305 307 309 312 315 319 326 334 335 335 336 332 323 327 331 320 329 330 328 327 322
302 301 301 300 299 299 299 298 299 300 301 302 304 306 309 312 316 323 331 332 332 334 333 327 330 329 328 331 330 329 329 327
300 298 297 297 298 297 297 297 297 298 300 302 304 306 308 311 315 319 325 331 330 331 332 332 331 331 331 330 329 329 329 329
298 297 295 295 295 295 296 296 296 297 299 301 302 305 308 311 313 319 324 323 326 328 330 330 330 330 330 330 330 329 328 329

GFSFLT2_925_thetae_114.txt.gz
Theta_e
349 349 347 341 340 341 340 339 338 339 340 341 341 335 334 336 337 336 335 335 340 343 343 339 337 337 337 337 338 337 336 336
347 348 347 346 344 341 340 339 338 339 341 341 341 337 335 335 337 338 336 336 338 341 343 341 338 337 336 336 338 338 337 336
349 349 349 349 348 343 340 339 339 341 341 342 342 341 339 337 338 339 338 336 337 338 341 341 339 339 338 336 337 338 338 336
350 350 350 348 347 345 341 340 339 340 342 343 343 343 342 341 341 340 340 338 336 336 339 340 339 339 339 337 336 337 337 336
348 347 349 347 345 343 341 340 340 340 340 342 343 343 343 343 343 342 341 340 338 337 339 340 339 338 338 338 337 336 337 336
347 346 347 347 346 346 343 340 339 339 339 339 340 341 342 342 342 342 341 341 339 338 339 340 339 338 337 337 337 336 336 336
347 346 345 346 346 347 347 347 342 338 337 337 337 338 338 340 340 340 340 340 340 339 339 340 340 339 338 338 338 337 338 337
324 325 325 329 336 338 342 344 344 342 340 338 338 337 337 338 340 344 344 342 341 340 340 340 340 339 338 337 338 337 338 337
322 322 322 323 323 323 325 329 333 340 343 344 342 339 340 340 339 343 345 344 344 343 342 341 341 340 339 337 338 338 338 337
319 320 320 320 320 320 321 321 322 324 326 330 339 342 343 342 343 341 341 345 344 344 343 342 341 341 340 340 339 339 339 338
316 317 316 316 317 318 318 319 319 320 321 323 323 325 336 341 341 340 340 341 343 343 343 342 340 340 340 340 340 339 338 337
314 313 312 313 313 314 314 315 316 316 317 319 320 321 324 335 340 339 338 339 340 341 341 341 340 339 339 339 340 338 338 337
311 311 310 310 309 309 310 310 311 313 314 315 316 317 319 321 322 337 340 339 339 338 338 339 339 339 338 337 337 338 337 336
307 307 307 306 305 305 305 306 309 310 311 313 314 314 315 317 319 322 331 339 339 338 337 336 337 337 337 335 333 332 335 336
304 304 304 303 303 302 302 304 304 306 308 310 313 313 313 313 314 315 320 330 338 339 337 336 334 334 335 329 329 332 327 332
302 301 301 301 300 300 299 299 299 300 301 302 305 309 311 311 311 313 315 318 326 336 337 336 335 328 326 325 322 326 325 326
299 298 298 298 298 298 298 298 297 298 299 300 302 303 305 309 310 311 313 316 318 332 336 335 334 326 322 322 323 326 327 322
297 296 295 295 296 296 296 296 296 297 298 300 301 302 304 306 308 309 312 315 318 327 334 333 331 327 324 325 327 328 326 323
296 295 294 293 293 294 295 295 295 296 297 298 299 300 302 304 306 308 311 313 317 323 331 331 329 326 325 324 325 325 326 327
294 294 294 292 292 292 293 294 294 294 294 295 297 299 301 302 304 306 308 312 314 319 328 330 329 327 327 327 324 325 328 328

GFSFLT2_925_thetae_117.txt.gz
Theta_e
349 349 347 344 341 340 340 340 340 339 338 339 337 334 334 335 336 335 335 336 338 341 342 339 337 336 337 337 337 336 335 336
344 348 347 345 342 341 341 340 340 338 338 339 340 337 334 335 336 336 335 336 338 341 342 341 337 337 336 337 337 337 334 335
345 347 347 346 344 341 341 340 340 339 339 340 341 340 336 335 336 337 337 336 336 339 342 343 340 337 337 336 337 337 336 335
346 347 347 347 346 345 343 341 341 341 342 342 343 342 339 337 336 337 338 338 337 339 341 342 342 339 338 337 336 337 337 336
345 347 348 348 347 345 345 342 341 342 343 343 343 343 342 341 339 339 339 339 339 339 341 341 343 339 338 338 336 336 336 337
345 349 349 348 346 345 343 342 341 341 342 347 348 348 346 344 342 342 341 341 340 339 339 340 342 340 338 338 337 337 336 336
346 347 347 347 346 346 346 343 341 340 339 339 342 346 347 348 346 344 342 342 341 340 339 338 340 341 339 338 337 337 336 335
333 334 337 338 335 334 337 340 342 342 340 339 339 340 340 340 341 343 341 341 341 341 340 338 338 340 340 339 337 337 336 336
324 323 325 327 325 324 325 326 327 330 333 333 339 339 339 340 339 340 339 339 341 341 340 340 339 340 340 339 338 336 337 337
318 319 320 320 320 320 319 319 320 321 323 325 325 326 330 339 340 341 340 339 338 339 340 341 340 340 340 340 339 338 337 337
314 315 315 316 316 316 316 316 316 316 316 317 318 320 321 324 330 339 341 340 339 337 339 342 340 340 340 339 339 338 337 338
310 310 310 311 311 311 312 313 312 312 312 313 314 314 315 317 319 322 332 338 337 334 337 336 334 338 339 339 338 338 339 338
306 306 306 308 309 309 308 308 310 311 312 311 312 313 314 314 315 316 319 329 337 337 336 334 334 336 337 337 335 336 336 337
302 302 302 302 303 304 306 307 306 308 309 310 309 310 311 312 313 314 314 316 325 334 337 336 336 336 335 334 333 332 334 334
299 300 299 300 300 302 305 306 306 305 306 307 307 308 308 308 309 311 312 313 315 320 332 335 335 335 335 332 327 333 328 329
296 297 297 298 299 299 298 298 298 298 299 300 303 304 306 306 307 307 309 311 313 315 318 329 334 331 330 333 329 326 327 324
295 295 296 296 296 296 296 297 297 297 298 298 299 301 303 306 306 306 308 310 312 314 316 319 332 333 329 324 322 321 323 321
295 294 293 294 294 294 295 295 295 296 296 297 297 298 299 301 303 304 306 308 310 313 315 320 327 330 330 328 325 323 323 322
294 293 292 292 292 292 293 294 294 294 295 295 295 297 298 299 300 301 303 305 308 310 312 315 323 328 328 327 326 325 325 324
292 292 292 291 291 291 292 292 292 293 293 293 294 295 295 296 297 298 300 302 305 308 312 314 317 325 326 325 324 325 326 326

GFSFLT2_925_thetae_120.txt.gz
Theta_e
346 345 343 342 341 340 340 340 340 339 338 336 333 333 333 334 334 334 333 332 335 337 336 339 339 338 336 335 335 335 334 336
344 346 346 345 343 341 340 340 340 340 339 338 337 334 334 335 335 335 334 333 336 338 340 340 339 336 336 335 335 336 335 334
345 346 346 345 344 342 341 341 340 340 340 339 339 338 336 337 337 337 336 335 336 338 340 341 339 337 337 336 335 335 336 334
343 345 346 345 345 343 341 341 341 341 340 340 341 342 340 337 337 338 338 337 337 338 340 342 342 339 338 337 335 334 336 335
343 345 346 346 345 346 345 344 342 342 342 342 343 347 348 342 339 338 339 339 338 338 340 342 342 342 339 338 336 335 334 335
341 345 346 346 346 346 344 344 343 342 343 345 344 341 341 341 343 341 339 339 339 339 339 340 340 341 341 338 338 336 334 333
335 344 346 347 346 345 344 344 342 341 342 342 344 341 341 340 341 341 342 344 340 340 339 339 340 339 341 340 338 337 336 335
330 341 345 346 343 344 343 342 343 341 340 339 340 340 338 337 339 340 340 340 344 341 340 340 340 341 341 341 339 337 336 336
329 334 337 338 336 335 333 335 336 336 336 334 337 339 339 338 339 339 340 340 341 338 341 341 340 341 342 341 340 339 337 336
316 316 318 321 321 321 322 322 323 323 323 325 327 327 329 333 334 336 339 339 340 338 338 339 339 338 338 340 340 339 338 337
310 311 311 312 315 316 316 315 316 315 315 316 316 317 318 320 325 328 329 333 339 339 338 338 338 338 339 338 337 339 338 338
306 306 307 308 309 311 312 311 311 311 312 312 312 312 313 314 314 316 318 322 332 334 337 337 335 337 337 333 334 336 336 336
301 302 303 304 306 307 308 309 309 310 310 310 310 311 311 311 312 313 313 314 317 328 335 334 332 332 334 332 333 332 331 335
297 298 298 300 300 301 303 305 305 306 306 306 307 308 309 310 310 310 311 312 313 316 326 335 333 332 332 328 327 326 326 332
295 295 296 296 298 300 303 302 302 301 303 304 304 305 305 306 307 308 309 310 311 313 315 320 333 334 334 332 330 333 328 328
295 294 296 293 294 295 297 297 298 298 298 299 300 301 303 303 305 306 306 307 309 311 313 314 319 330 332 333 332 328 329 327
294 294 293 293 293 293 294 295 296 296 296 296 297 298 299 300 302 303 305 306 308 309 311 312 315 319 328 328 327 327 325 324
293 292 292 293 292 292 292 293 294 295 295 295 295 296 297 298 299 300 301 303 305 307 310 312 313 315 320 327 326 326 322 322
292 291 291 291 291 291 292 292 292 293 293 293 294 294 294 295 295 297 298 299 302 303 305 308 311 313 316 322 326 326 327 325
291 290 290 291 291 291 291 291 291 291 291 291 291 291 291 292 293 294 296 297 299 301 304 307 310 313 315 317 325 326 326 325

GFSFLT2_925_thetae_123.txt.gz
Theta_e
344 343 341 341 341 341 341 340 339 338 337 334 333 334 334 335 335 336 335 333 333 334 335 333 332 334 333 333 335 335 338 339
345 345 343 342 341 341 341 340 340 339 339 337 335 334 334 335 336 337 337 335 333 334 335 334 337 338 335 334 335 335 337 338
342 344 344 343 343 342 341 341 341 341 341 340 338 338 340 340 338 338 338 336 336 339 338 339 340 339 335 335 335 339 339 338
333 342 344 345 344 344 342 341 341 341 341 341 341 340 339 341 341 338 338 338 338 341 341 342 342 342 340 336 338 339 339 339
318 332 342 345 345 344 343 342 341 341 342 342 342 342 342 342 341 340 341 341 342 342 342 342 343 343 342 340 339 339 338 338
315 318 342 344 345 344 344 344 344 343 343 344 342 342 341 340 341 343 341 340 342 342 342 341 342 342 342 340 337 338 338 338
317 331 340 344 345 345 345 344 343 342 343 343 342 340 340 340 339 340 341 340 340 341 341 341 343 342 341 341 341 339 338 338
324 332 339 343 343 343 343 342 342 340 342 340 342 340 338 338 339 338 339 340 340 340 341 341 342 341 344 341 341 340 339 336
316 322 330 334 335 339 339 340 339 339 339 338 338 338 339 338 338 337 338 338 337 337 337 340 342 341 340 339 341 339 339 338
308 310 315 317 319 322 323 326 328 329 330 330 330 330 331 330 331 333 336 338 339 338 338 336 337 338 339 340 339 339 338 337
303 304 306 309 312 312 314 314 315 315 315 316 317 319 320 321 323 325 327 329 333 338 339 338 339 339 339 339 338 338 338 337
299 300 301 304 306 307 308 308 309 309 308 310 311 312 313 313 314 316 317 318 323 329 332 335 338 338 338 338 338 337 336 335
297 297 298 299 300 302 305 305 306 304 304 305 307 308 310 311 311 312 313 314 316 318 325 331 335 337 337 334 328 332 329 331
297 296 296 297 298 299 300 301 303 303 301 302 302 303 305 306 308 308 308 310 313 315 317 322 332 333 333 333 332 331 328 330
295 295 294 294 296 298 299 299 300 301 300 301 301 301 302 303 305 307 307 307 309 312 314 318 323 331 332 331 330 331 332 328
295 294 293 294 294 295 297 296 296 297 298 298 299 299 300 301 302 303 303 305 307 308 310 312 316 321 327 332 332 330 334 334
293 294 293 293 293 294 294 294 294 295 296 297 297 298 298 298 298 299 300 301 303 306 308 310 311 314 319 326 331 331 331 329
294 293 292 292 293 292 292 292 293 293 293 294 294 295 295 295 295 296 297 298 299 301 303 306 310 312 314 317 321 329 329 329
292 292 292 291 292 292 291 292 292 292 291 291 292 292 293 293 293 294 295 296 297 299 300 303 305 308 311 314 316 319 327 326
291 291 291 291 291 291 291 291 291 290 290 290 290 290 291 291 291 292 292 294 295 296 298 301 304 306 309 312 315 317 320 325

GFSFLT2_925_thetae_126.txt.gz
Theta_e
351 351 347 341 342 342 343 341 339 337 335 335 336 338 340 339 338 338 338 337 337 337 340 339 337 336 335 333 332 334 339 339
350 351 351 351 350 343 342 342 341 339 338 336 335 336 338 338 337 338 338 338 338 338 339 338 335 333 334 335 335 335 338 339
336 347 350 351 351 350 343 341 341 340 341 340 338 341 342 342 341 342 339 338 338 337 337 336 335 334 337 337 337 338 338 338
321 331 343 349 348 349 349 348 347 346 346 346 345 345 345 344 343 341 342 340 340 338 337 338 337 341 341 339 339 338 339 338
319 321 335 346 346 348 348 347 347 348 348 348 347 347 346 345 343 344 342 341 342 341 342 343 343 342 340 340 339 339 339 338
324 327 330 341 345 347 348 347 347 347 347 346 346 345 345 345 344 343 343 343 342 342 342 342 343 343 343 341 341 340 338 337
324 327 332 339 344 346 348 348 346 346 346 346 343 343 345 344 342 341 341 342 342 342 342 341 342 343 343 343 343 341 340 338
318 318 321 331 341 344 345 345 345 344 342 342 342 341 341 341 342 340 340 340 340 341 341 342 340 341 342 343 342 342 341 340
311 311 312 317 324 328 332 333 334 335 335 336 336 337 340 341 342 342 341 341 339 339 340 341 340 340 340 341 343 342 341 341
307 306 307 309 312 315 318 320 323 325 324 323 324 326 330 332 334 336 338 337 338 340 339 340 339 339 339 339 340 342 342 341
303 304 303 305 309 311 313 314 315 315 316 316 315 317 317 320 325 328 328 331 333 336 338 339 339 339 338 338 338 340 341 340
301 300 301 303 305 308 310 312 312 311 312 311 311 312 314 315 318 320 320 323 327 330 330 333 336 339 338 338 338 338 339 338
301 300 298 299 302 304 306 307 311 310 308 308 308 309 310 312 314 316 317 318 321 323 325 329 334 335 336 337 337 337 334 336
300 299 298 298 298 299 303 306 307 307 306 306 306 306 307 308 308 309 310 312 314 317 320 323 326 332 335 335 335 333 332 333
301 299 298 297 298 299 301 303 304 304 304 304 303 304 303 303 303 304 306 307 310 311 312 314 320 323 331 335 335 336 333 329
300 299 299 298 298 298 300 303 303 301 302 301 301 301 300 300 300 301 303 303 305 306 309 311 313 316 321 327 333 332 333 334
296 298 297 297 297 296 298 298 299 300 299 299 298 298 298 298 298 298 299 300 301 302 303 305 308 312 315 319 323 329 332 335
297 297 296 296 294 295 295 295 296 296 296 296 296 296 296 296 295 296 297 298 299 299 300 302 304 307 310 314 317 321 328 330
297 297 296 295 294 294 293 293 294 294 293 293 293 292 293 294 294 294 295 295 296 297 298 301 303 305 307 310 312 316 317 322
294 295 295 294 293 293 293 292 292 292 291 291 291 292 292 291 292 293 293 294 295 295 297 299 302 303 303 304 308 312 315 318

GFSFLT2_925_thetae_129.txt.gz
Theta_e
352 354 353 344 341 342 342 341 338 336 335 337 338 340 341 340 340 340 339 340 340 342 342 340 339 340 337 336 333 331 336 338
341 348 352 353 353 344 341 342 342 341 338 336 336 337 340 341 342 342 340 340 338 337 339 339 340 340 338 335 334 332 335 340
325 330 340 347 351 351 350 343 342 342 340 340 338 340 342 344 344 344 342 339 339 338 338 339 340 340 336 335 336 337 338 338
322 324 326 340 343 345 351 350 348 347 346 346 346 345 345 344 343 342 340 342 340 339 336 336 337 340 339 336 339 339 338 337
327 330 335 332 339 341 343 344 346 347 347 347 347 348 347 345 345 344 344 342 343 341 341 340 340 341 339 342 342 340 339 337
324 325 329 337 341 341 341 341 341 342 344 348 348 347 347 347 345 343 343 344 343 342 342 342 342 343 342 342 341 340 337 336
319 319 321 326 331 336 344 346 345 344 345 344 344 345 344 344 345 344 344 342 341 342 342 342 342 342 343 343 342 341 339 338
315 315 317 321 322 328 333 338 342 343 343 342 343 343 343 344 344 343 343 343 343 342 341 342 342 343 342 342 342 343 343 340
312 312 312 315 319 318 320 326 327 330 331 331 332 333 335 337 340 340 340 341 341 341 341 341 342 342 343 343 342 342 341 342
309 310 310 312 312 316 315 317 315 317 317 320 322 322 323 326 329 330 332 334 335 337 339 339 339 340 342 342 342 342 342 342
308 307 307 310 311 312 313 313 313 313 313 314 315 317 318 320 322 325 325 326 329 331 332 334 338 339 337 340 340 340 341 341
306 306 305 306 309 311 311 311 312 311 311 312 313 314 315 317 319 321 321 322 324 326 330 332 333 333 336 337 337 338 339 339
306 305 305 304 304 306 310 309 309 309 310 311 311 311 311 312 312 313 314 315 317 319 321 324 326 330 333 335 335 335 335 337
306 305 305 305 305 305 305 307 309 307 306 308 308 308 307 306 306 307 308 309 311 313 314 316 319 323 329 331 335 334 336 335
305 305 304 304 304 305 306 307 307 306 306 305 305 305 304 303 303 304 305 306 307 308 309 311 314 316 320 326 332 333 332 334
302 303 302 302 302 303 303 305 306 306 305 304 304 303 303 301 301 301 302 303 304 305 306 306 308 311 314 318 321 326 329 334
302 302 302 300 299 299 300 300 300 301 302 302 302 302 301 300 299 299 299 300 301 301 302 303 305 306 309 312 316 319 321 329
302 301 301 300 299 298 297 297 297 297 296 297 298 298 298 297 296 297 297 298 298 299 300 301 303 304 306 309 312 314 318 320
299 299 299 298 297 297 296 296 296 296 295 294 293 295 294 294 294 295 295 295 296 297 298 299 301 302 304 305 306 309 312 313
297 298 297 296 296 295 294 294 294 294 293 292 292 292 292 292 291 293 292 293 294 295 296 297 298 298 300 302 303 305 306 308